GFSSGP_con_sbcape_114.txt.gz
CAPE
0 0 0 0 0 0 0 0 0 0 0 0 0 0 0 0 0 0 0 864 432 767 1342 1448 1395 1192 1399 1606 1776 2022 2177 2243 2277 2232 2194 2138 2166 2113 1986 1959 2022 2135 2261 1941 1728 1730 1662 1647 1469
0 0 0 0 0 0 0 0 0 0 0 0 0 0 0 0 0 0 183 749 448 784 1308 1617 1252 1263 1426 1789 1978 2187 2432 2398 2341 2314 2283 1954 2123 2009 1764 2052 1987 2063 2180 2157 1883 1807 1730 1676 1518
0 0 0 0 0 0 0 0 0 0 0 0 0 0 0 0 0 0 0 623 455 780 1054 1681 1180 1276 1579 1827 2016 2201 2447 2326 2308 2251 2101 1851 1628 1415 1228 1189 1986 2141 2305 2244 1772 1746 1751 1527 1324
0 0 0 0 0 0 0 0 0 0 0 0 0 0 0 0 0 0 0 519 681 878 983 949 1024 1255 1609 1837 2033 2143 2306 2256 2142 1938 2031 1927 1540 1345 1062 1036 1787 2074 2093 1913 1635 1901 1546 1175 1008
0 0 0 0 0 0 0 0 0 0 0 0 0 0 0 0 2 157 83 719 888 1148 1319 1836 1073 1267 1634 1909 2026 2077 2051 2030 1892 1751 1664 1423 412 86 368 647 712 1591 1692 1883 1753 1494 1182 746 722
0 0 0 0 0 0 0 0 0 0 0 0 0 0 0 0 0 333 445 1033 1449 1816 1908 2045 1293 1284 1450 1698 1800 1851 1696 1717 1604 1562 1510 1070 185 414 500 1066 1227 1547 1588 1549 1466 1137 934 590 481
0 0 0 0 0 0 0 0 0 0 0 0 0 0 0 0 87 756 1046 1469 1985 2168 2171 2222 2128 1791 1253 1244 1368 1622 1681 1581 1421 1277 1240 926 699 683 1097 912 1300 1406 1279 1304 1128 793 526 415 233
0 0 0 0 0 0 0 0 0 0 0 0 0 0 0 0 125 689 1351 1622 1863 2132 2216 2247 2333 2283 2084 1794 1083 1267 1388 1360 1154 1042 744 379 246 661 867 915 1090 1178 1188 1187 848 523 341 173 78
0 0 0 0 0 0 0 0 0 0 0 0 0 0 0 0 4 277 1244 1792 1930 1980 2130 2280 2348 2354 2231 2233 1685 1079 1150 904 722 704 495 487 1130 1304 1063 679 850 1004 963 892 484 312 175 0 0
0 0 0 0 0 0 0 0 0 0 0 0 0 0 0 0 0 0 441 1257 1923 1984 2126 2136 2340 2396 2161 1647 2109 2079 2217 2073 1764 1538 1148 1272 1281 936 510 216 607 751 648 530 293 152 37 118 401
0 0 0 0 0 0 0 0 0 0 0 0 0 0 0 0 0 0 0 333 1024 1652 2057 2080 2287 2436 1833 1703 1792 2331 2500 2280 2113 1712 1448 1179 1070 617 179 328 625 1117 452 715 359 233 522 555 525
0 0 0 0 0 0 0 0 0 0 0 0 0 0 0 0 0 0 0 0 371 1096 1916 2106 2161 2419 2009 1715 1635 2075 1876 2072 1633 1576 1415 1221 1255 1006 475 508 436 683 512 837 765 816 591 470 337
0 0 0 0 0 0 0 0 0 0 0 0 0 0 0 0 0 0 0 0 48 746 1361 1960 2133 2281 2046 1534 1517 1517 1592 1356 1112 1134 975 980 1268 1027 457 406 239 460 743 190 494 604 375 299 214
0 0 0 0 0 0 0 0 0 0 0 0 0 0 0 0 0 0 0 0 101 450 1061 1607 1986 2105 1899 1431 1302 1242 1446 1335 873 721 1204 982 1313 761 828 754 334 425 439 282 128 55 220 174 183
0 0 0 0 0 0 0 0 0 0 0 0 0 0 0 0 0 0 0 0 0 143 660 1327 1842 1918 1761 1554 1378 1157 1208 1325 767 551 770 716 584 500 755 851 900 307 543 370 72 11 114 131 161
0 0 0 0 0 0 0 0 0 0 0 0 0 0 0 0 0 0 0 0 0 0 130 913 1260 1795 1497 1279 1329 1041 925 980 774 565 372 401 363 202 327 550 814 525 146 120 24 21 154 171 169
0 0 0 0 0 0 0 0 0 0 0 0 0 0 0 0 0 0 0 0 0 0 0 722 1373 1697 1494 1428 1018 687 687 584 311 182 399 345 268 188 242 126 668 400 175 244 56 64 185 146 156
0 0 0 0 0 0 0 0 0 0 0 0 0 0 0 0 0 0 0 0 0 0 15 588 1171 1475 1290 1032 686 724 607 390 175 178 47 166 62 98 82 40 118 187 129 194 111 139 180 150 138
0 0 0 0 0 0 0 0 0 0 0 0 0 0 0 0 0 0 0 0 74 74 133 586 978 1374 576 558 515 661 555 274 295 284 15 6 18 11 35 22 98 69 63 227 147 228 204 180 162
0 0 0 0 0 0 0 0 0 0 0 0 0 0 0 0 0 0 0 0 211 300 420 534 854 1293 356 501 805 559 159 97 30 54 59 32 9 6 8 12 49 16 65 94 55 181 204 172 192
0 0 0 0 0 0 0 0 0 0 0 0 0 0 0 0 0 0 0 0 65 400 585 605 827 1180 853 1068 510 677 494 137 281 181 139 31 12 7 6 5 1 2 7 4 2 129 167 137 181
0 0 0 0 0 0 0 0 0 0 0 0 0 0 0 0 0 0 0 0 11 318 542 501 762 854 863 1040 690 595 396 157 152 175 148 61 93 63 8 9 2 1 2 1 0 1 68 162 125
0 0 0 0 0 0 0 0 0 0 0 0 0 0 0 0 2 63 3 0 0 260 408 147 449 566 789 957 719 455 132 132 104 214 210 207 79 29 23 3 1 1 0 0 0 1 23 74 203
0 0 0 0 0 0 0 0 0 0 0 0 0 0 0 0 19 69 54 0 6 411 76 38 321 241 144 380 427 247 84 42 92 97 163 142 48 22 2 1 1 1 0 0 0 0 2 153 200
0 3 0 0 0 0 0 0 0 0 0 0 0 0 0 0 178 189 153 103 99 280 4 8 239 41 6 28 86 81 52 4 10 14 65 51 6 2 1 1 1 1 2 1 0 0 2 99 191
0 1 0 0 0 0 0 0 0 0 0 0 5 0 0 119 395 304 222 325 166 3 6 9 81 1 4 99 72 60 12 10 18 70 42 15 4 1 1 0 1 0 1 0 0 0 0 19 132
0 34 0 0 7 7 0 0 0 0 0 18 54 16 34 295 529 438 277 238 139 5 1 8 7 1 3 184 168 31 10 15 15 68 30 2 5 1 2 4 4 3 2 2 2 2 3 10 54
0 0 3 13 0 0 0 0 3 0 9 76 120 80 109 331 268 194 149 17 7 4 8 12 10 7 0 39 12 10 4 19 22 59 11 2 5 4 4 9 9 6 4 2 7 14 17 57 52
0 40 24 5 3 2 1 2 33 84 115 253 214 85 115 183 181 60 8 13 12 5 7 13 9 10 9 2 8 9 8 16 21 34 19 6 5 5 5 11 7 5 13 9 7 5 0 3 1
4 23 65 51 4 6 26 33 146 109 310 437 133 43 36 65 38 2 6 0 1 8 9 9 5 11 11 15 10 2 13 25 19 18 6 7 3 4 5 5 7 6 10 3 5 9 0 0 0

GFSSGP_con_sbcape_117.txt.gz
CAPE
0 0 0 0 0 0 0 0 0 0 0 0 0 0 0 0 0 0 0 182 22 231 1261 1334 1353 1563 1530 1586 1688 1877 2124 2264 2165 2096 2081 1920 1670 1834 2212 2151 2182 2094 2025 1839 1679 1750 1783 1654 1571
0 0 0 0 0 0 0 0 0 0 0 0 0 0 0 0 0 0 6 176 33 320 1290 1589 1194 1321 1660 1738 1839 2086 2240 2337 2235 2185 2137 1849 1648 1693 1600 1672 1786 1883 2004 2155 1804 1760 1760 1658 1544
0 0 0 0 0 0 0 0 0 0 0 0 0 0 0 0 0 0 0 4 18 304 889 1900 1179 1262 1679 1861 2001 2279 2343 2239 2206 2201 2052 1472 1382 1067 316 534 797 1433 2389 2045 1878 1763 1766 1554 1314
0 0 0 0 0 0 0 0 0 0 0 0 0 0 0 0 0 0 0 0 3 303 591 991 1021 1280 1626 1913 2052 2181 2251 2085 2084 2123 1958 1394 872 481 211 203 573 768 1445 2016 1922 1961 1654 1250 1096
0 0 0 0 0 0 0 0 0 0 0 0 0 0 0 0 0 0 0 2 247 398 1309 1768 1032 1319 1681 1937 2093 2047 2004 2001 2026 1982 1814 1082 490 321 367 509 491 205 726 1965 1935 1620 1326 1066 894
0 0 0 0 0 0 0 0 0 0 0 0 0 0 0 0 0 0 0 328 698 1071 1717 1866 1109 1321 1603 1799 1814 1861 1892 1874 1909 1761 1496 465 64 93 233 596 610 422 963 1579 1472 1180 972 830 755
0 0 0 0 0 0 0 0 0 0 0 0 0 0 0 0 25 519 184 556 1211 1774 2044 2125 1825 1551 1352 1509 1490 1670 1606 1691 1615 1548 1197 450 109 249 182 292 685 560 1162 1407 1150 820 709 658 449
0 0 0 0 0 0 0 0 0 0 0 0 0 0 0 2 0 177 560 973 1553 2050 2063 2196 2121 2087 2109 1889 1312 1427 1490 1382 1354 1186 869 145 89 342 316 704 827 1077 1224 1218 941 504 437 355 238
0 0 0 0 0 0 0 0 0 0 0 0 0 0 0 0 0 84 786 1246 1669 2055 2110 2049 2180 2319 2375 2176 1672 1149 1134 1081 1053 970 432 237 676 164 645 732 870 1016 1056 861 517 304 186 111 88
0 0 0 0 0 0 0 0 0 0 0 0 0 0 0 0 0 0 185 986 1530 1860 2138 2071 2226 2380 2502 1957 2131 1768 1800 1769 1609 1807 1528 1608 1192 936 958 713 797 871 817 507 354 132 25 171 526
0 0 0 0 0 0 0 0 0 0 0 0 0 0 0 0 0 0 0 31 1012 1482 1927 2092 2306 2462 2482 2341 2327 2034 1985 1870 2067 1726 1777 1728 1175 1723 1088 1255 811 1226 710 728 413 69 639 510 542
0 0 0 0 0 0 0 0 0 0 0 0 0 0 0 0 0 0 0 0 8 710 1844 2134 2137 2436 2714 2318 2125 2049 2126 1958 1958 1981 2152 1587 1482 1368 1248 432 126 710 1315 896 337 642 857 590 519
0 0 0 0 0 0 0 0 0 0 0 0 0 0 0 0 0 0 0 0 0 13 943 2085 2186 2578 2638 2378 1925 2036 2214 2167 2149 1915 2097 1644 1416 1071 881 762 736 858 1207 1151 490 722 897 680 432
0 0 0 0 0 0 0 0 0 0 0 0 0 0 0 0 0 0 0 0 0 0 553 1558 2292 2430 2807 1980 2075 2141 1976 1887 2061 1955 1894 1601 1362 1549 1019 1213 848 567 1068 665 184 308 497 594 290
0 0 0 0 0 0 0 0 0 0 0 0 0 0 0 0 0 0 0 0 0 0 134 1129 2100 2618 2797 2012 1838 1935 1694 1696 1867 1556 1887 1653 1408 1418 1212 1147 904 617 1052 197 77 63 95 471 212
0 0 0 0 0 0 0 0 0 0 0 0 0 0 0 0 0 0 0 0 0 0 66 437 1072 2497 2883 2400 2264 1817 1499 1576 1743 1307 1514 1604 1217 1135 1332 1040 1207 897 852 160 57 127 93 46 142
0 0 0 0 0 1 0 0 0 0 0 0 0 0 0 0 0 0 0 0 0 0 0 56 1483 1990 2952 2507 2023 1917 1670 1511 1523 1344 1074 1190 1085 920 990 1086 995 814 794 527 88 62 33 18 82
0 0 0 0 0 0 0 0 0 0 0 0 0 0 0 0 0 0 0 0 0 0 0 0 932 2028 2855 2438 2016 1831 1536 1103 1108 923 906 955 983 743 702 976 920 969 640 278 7 34 30 47 92
0 0 0 0 0 0 0 0 0 0 0 0 0 0 0 0 0 0 0 0 0 0 41 110 466 1699 2304 2060 1987 1269 1049 720 723 677 579 699 874 537 645 566 549 149 111 83 68 58 55 55 227
0 0 0 0 0 0 0 0 0 0 0 0 0 0 0 0 0 0 0 0 0 0 256 316 664 1310 1935 1472 1092 1212 1314 1128 1059 678 581 368 295 366 278 384 207 25 65 78 11 48 23 42 234
0 0 0 0 0 0 0 0 0 0 0 0 0 0 0 0 0 0 0 0 0 30 425 488 736 1059 1665 799 1015 1318 1126 834 478 329 399 444 146 58 20 16 61 31 19 10 18 49 13 33 109
0 0 0 0 0 0 0 0 0 0 0 0 0 0 0 0 0 0 0 0 0 4 330 637 738 975 1498 999 1246 1473 1045 670 660 558 522 343 281 95 12 4 7 10 7 29 12 39 66 69 125
0 0 0 0 0 0 0 0 0 0 0 0 0 0 0 0 0 0 0 0 0 2 406 889 916 1049 1343 1383 1382 1457 1380 940 640 464 538 369 293 173 44 8 3 5 3 2 7 0 64 59 145
0 0 0 3 5 10 0 0 0 0 0 0 0 0 0 0 0 2 29 176 3 541 869 950 901 1162 1306 1417 1559 1431 1324 916 636 502 460 506 405 405 122 44 7 0 1 1 0 1 35 57 84
11 8 2 32 39 0 0 0 0 0 0 2 31 14 10 40 124 164 228 327 61 467 777 193 454 877 993 1254 1526 1318 1107 765 590 510 406 411 388 230 166 38 7 2 1 0 1 0 9 18 23
28 25 48 23 4 0 0 1 0 0 0 8 24 68 113 201 473 417 546 651 503 550 501 2 173 530 267 856 1305 976 815 614 372 255 191 142 273 100 15 23 2 1 1 1 1 2 2 5 5
32 97 12 44 22 17 2 0 0 0 0 71 130 123 287 477 643 658 693 605 455 154 7 1 100 154 15 336 866 601 544 326 182 103 239 261 101 16 22 2 1 1 0 0 2 1 5 2 10
56 20 65 107 58 30 4 0 0 0 7 98 159 259 478 647 600 523 432 225 48 0 4 3 13 26 16 326 530 407 339 270 122 185 237 118 8 4 4 2 2 1 1 1 1 1 2 3 8
60 57 43 34 83 58 13 2 1 24 12 73 186 358 549 628 597 280 10 5 3 9 7 7 10 11 9 202 346 385 175 149 65 244 177 37 4 6 5 4 7 4 1 2 2 2 2 1 7
341 51 59 70 55 45 19 7 168 140 97 103 433 400 646 486 248 67 3 1 1 0 8 10 8 16 15 1 7 138 19 14 96 110 108 17 4 5 2 5 11 4 2 2 2 6 7 4 13

GFSSGP_con_sbcape_120.txt.gz
CAPE
0 0 0 0 0 0 0 0 0 0 0 0 0 0 0 0 0 0 0 302 603 886 1010 1047 1366 1471 1528 1585 1568 1742 1981 2165 2110 2022 1978 1987 1963 1810 1848 2260 2311 2055 2102 2021 1815 1700 1703 1612 1544
0 0 0 0 0 0 0 0 0 0 0 0 0 0 0 0 0 0 24 145 543 1149 1078 1039 1149 1374 1551 1655 1728 1908 2151 2310 2156 2101 2092 1940 1586 1213 1114 1122 1261 1447 1915 2036 1843 1911 1755 1634 1479
0 0 0 0 0 0 0 0 0 0 0 0 0 0 0 0 0 0 1 0 306 1031 1180 1195 952 1179 1521 1688 1834 2144 2253 2220 2119 2068 2157 1712 677 207 361 64 291 329 732 2023 1762 1891 1714 1489 1237
0 0 0 0 0 0 0 0 0 0 0 0 0 0 0 0 0 0 0 0 58 632 1919 718 864 1122 1524 1765 1977 2116 2087 1600 1938 1998 1938 1397 223 65 171 17 282 126 1 921 1508 1848 1542 1137 997
0 0 0 0 0 0 0 0 0 0 0 0 0 0 0 0 0 0 0 0 261 1526 1770 1082 804 1132 1547 1808 1996 1912 1920 1689 1755 1913 1729 1039 388 116 105 141 134 0 0 417 1195 1516 1284 978 831
0 0 0 0 0 0 0 0 0 0 0 0 0 0 0 0 0 0 0 716 1714 2497 2224 1300 905 1164 1456 1643 1737 1690 1721 1497 1756 1829 1129 1052 604 397 155 219 147 5 1 295 1097 1252 1059 852 746
0 0 0 0 0 0 0 0 0 0 0 0 0 0 0 0 109 112 192 956 1796 2686 2379 1602 1321 1299 1230 1280 1385 1573 1596 1475 1698 1471 781 419 529 367 551 624 235 41 331 962 1192 944 831 750 632
0 0 0 0 0 0 0 0 0 0 0 0 0 0 0 145 735 484 384 1320 1555 2221 2598 1909 1781 1655 1662 1387 1168 1420 1403 1390 1427 1141 416 141 0 70 352 588 632 592 692 1122 799 642 664 544 377
0 0 0 0 0 0 0 0 0 0 0 0 0 0 0 3 27 112 672 1569 1978 2327 2468 2246 2083 2000 2172 1953 1295 1096 1267 1091 1052 814 336 40 155 186 115 150 369 594 702 894 544 382 275 239 177
0 0 0 0 0 0 0 0 0 0 0 0 0 0 0 0 0 89 645 1260 1866 2359 2444 2384 2374 2296 2424 1926 1627 1502 1587 1466 1511 1461 419 707 802 299 278 569 574 531 630 515 369 204 66 163 153
0 0 0 0 0 0 0 0 0 0 0 0 0 0 0 0 0 0 206 963 1467 2052 2364 2266 2465 2621 2582 1851 2045 1611 1745 1564 1504 1756 1378 1395 1209 1078 700 674 642 443 463 368 187 106 91 291 247
0 0 0 0 0 0 0 0 0 0 0 0 0 0 0 0 0 0 0 0 872 1422 2259 2275 2405 2825 2766 1986 1958 1885 1486 1779 1789 1514 1715 1545 1279 1071 881 703 542 455 499 406 279 107 129 124 155
0 0 0 0 0 0 0 0 0 0 0 0 0 0 0 0 0 0 0 0 0 864 1962 2200 2384 2650 2749 2259 1920 2074 1648 1919 1844 1796 1738 1458 1275 1048 908 500 355 297 675 500 333 149 125 120 206
0 0 0 0 0 0 0 0 0 0 0 0 0 0 0 0 0 0 0 0 0 0 1801 2318 2199 2609 2845 2308 2178 1894 2347 1861 2178 1981 1857 1559 1162 1056 694 382 442 609 605 710 406 128 148 119 207
0 0 0 0 0 0 0 0 0 0 0 0 0 0 0 0 0 0 0 0 0 0 483 2314 2392 2476 2911 2328 2128 2008 2135 1986 1902 1793 1917 1501 1247 1010 541 491 486 450 536 462 125 75 61 164 161
0 0 0 0 0 0 0 0 0 0 0 0 0 0 0 0 0 0 0 0 0 0 42 1521 2271 2344 2691 2399 1796 1706 1753 1734 1675 1244 1632 1576 1267 985 768 525 340 289 402 144 41 38 33 57 42
0 0 0 0 0 0 2 0 0 0 0 0 0 0 0 0 0 0 0 0 0 0 0 595 1424 2225 2507 2347 1932 1738 1616 1726 1574 1337 1215 1646 1308 1005 713 592 365 322 342 34 10 20 27 27 27
0 0 0 0 0 0 0 0 2 0 0 0 0 0 0 0 0 0 0 0 0 0 0 496 1254 1967 2478 2628 2219 1980 1754 1461 1572 1448 1154 1267 1243 964 742 559 323 287 238 29 0 11 9 13 15
0 0 0 0 0 0 0 0 0 0 0 0 0 0 0 0 0 1 0 0 0 0 239 247 1208 1833 2296 2364 2170 1829 1653 1304 1116 1036 939 730 970 810 690 458 299 250 197 57 7 15 10 0 0
0 0 0 0 0 0 0 0 0 0 0 0 0 0 0 0 0 3 6 15 14 2 132 370 306 1701 2010 2269 2108 1730 1573 758 578 578 527 517 727 705 508 438 257 196 175 31 1 0 2 0 4
0 0 0 0 0 0 0 0 0 0 0 0 0 0 0 0 0 0 0 0 23 55 555 342 362 769 1674 2130 1652 1083 809 798 688 764 588 437 347 520 320 367 155 83 8 2 1 0 9 4 5
0 0 0 0 0 0 0 0 0 0 0 0 0 0 0 0 0 0 0 0 0 3 518 557 453 631 1419 1660 1134 1086 915 1014 775 503 337 362 237 206 202 158 102 25 4 5 1 1 0 1 0
3 0 0 0 0 3 0 0 0 0 0 0 0 0 0 0 0 0 0 0 0 2 425 513 643 747 1559 1229 893 939 1099 944 598 558 244 230 264 158 19 32 28 27 8 4 2 1 0 0 0
5 6 0 4 0 2 0 0 0 0 0 0 0 3 0 5 15 8 1 8 41 1195 1037 1302 1073 859 1271 1139 1176 1060 1297 969 743 717 590 377 254 226 78 2 4 4 4 5 1 11 1 2 1
14 48 17 29 30 10 0 0 0 0 0 0 24 212 185 128 150 142 167 323 249 1052 1439 1168 951 946 1376 1428 1229 1271 1292 1422 999 607 557 478 427 325 185 5 7 2 0 0 3 1 7 15 3
11 41 58 22 50 0 0 3 0 0 0 0 263 300 244 240 504 597 729 753 746 1080 999 216 115 389 1176 1307 1276 1246 1001 1207 855 715 470 411 310 270 310 1 1 1 1 1 0 1 2 13 4
121 65 12 97 50 42 5 0 0 0 0 0 478 283 240 530 585 793 689 532 279 250 215 103 3 134 395 481 697 922 790 638 576 465 307 320 252 249 3 6 7 2 1 2 1 0 3 2 5
87 153 111 72 28 6 0 5 0 0 0 17 472 307 648 862 639 476 225 59 6 1 3 5 5 120 60 110 220 526 388 387 327 270 243 279 246 3 1 0 0 2 1 1 1 1 1 2 4
15 131 132 72 52 10 15 15 0 36 0 299 370 583 479 563 434 112 13 0 0 0 1 11 4 5 21 3 104 338 249 233 127 134 294 109 10 3 0 0 1 1 0 1 1 1 1 5 14
0 0 49 107 28 59 47 0 0 162 129 259 289 432 659 527 172 1 3 3 0 0 0 0 3 16 18 2 6 100 112 49 31 59 252 95 4 0 0 0 1 1 1 1 1 1 1 7 9

GFSSGP_con_sbcape_123.txt.gz
CAPE
0 0 0 0 0 0 0 0 0 0 0 0 0 0 0 0 0 0 26 214 558 707 948 1137 1175 1296 1413 1519 1570 1708 1953 2030 1914 1915 1865 1965 1748 1670 1492 1612 1498 1505 1518 1837 1482 1713 1609 1534 1523
0 0 0 0 0 0 0 0 0 0 0 0 0 0 0 0 0 19 180 584 542 518 855 1009 1085 1246 1440 1480 1582 1740 2078 2142 2077 2001 1967 1772 1421 1327 833 622 434 489 417 1377 1824 1761 1613 1520 1396
0 0 0 0 0 0 0 0 0 0 0 0 0 0 0 0 0 0 194 755 560 672 761 986 981 1162 1396 1479 1665 1915 2050 1967 1917 1944 2006 1426 1143 864 666 569 446 325 132 483 1370 1851 1581 1336 1183
0 0 0 0 0 0 0 0 0 0 0 0 0 0 0 0 0 0 219 758 536 846 849 724 849 1093 1360 1572 1868 1969 1872 1540 1724 1770 1739 1011 1079 953 766 415 237 11 144 234 959 1402 1376 1044 991
0 0 0 0 0 0 0 0 0 0 0 0 0 0 0 0 0 0 8 565 703 1071 653 600 814 1086 1408 1758 1914 1860 1317 1257 1521 1645 1247 951 1065 978 435 423 99 30 84 225 635 1412 1236 948 857
0 0 0 0 0 0 0 0 0 0 0 0 0 0 0 0 0 0 0 482 1471 1071 755 661 837 1075 1286 1600 1647 1669 1270 1129 1418 1517 821 817 796 459 311 430 293 178 265 183 600 992 942 842 729
0 0 0 0 0 0 0 0 0 0 0 0 0 0 0 0 0 0 460 1576 1566 1315 787 657 838 1060 1155 1281 1359 1419 1136 1058 1462 1029 752 738 538 261 288 417 93 175 384 467 439 868 704 669 569
0 0 0 0 0 0 0 0 0 0 0 0 0 0 0 320 0 64 874 1805 1793 1376 912 695 752 845 772 771 1178 1250 1100 1132 1469 800 578 311 179 214 280 537 197 87 184 408 1066 764 511 476 177
0 0 0 0 0 0 0 0 0 0 0 0 0 0 94 217 87 120 631 1164 1787 1649 1131 945 997 911 843 646 875 1055 1149 1196 1175 580 150 70 5 11 401 523 396 486 432 629 807 498 403 195 118
0 0 0 0 0 0 0 0 0 0 0 0 0 0 1 17 23 32 614 1180 1527 1822 1534 1234 1158 1152 1201 1197 662 678 792 581 678 402 31 0 0 0 101 149 483 535 507 590 544 343 201 131 92
0 0 0 0 0 0 0 0 0 0 0 0 0 0 0 0 0 10 337 1217 1619 1699 1909 1500 1468 1339 1502 1383 546 702 767 720 758 382 27 4 105 31 0 52 90 239 381 286 159 112 113 133 91
0 0 0 0 0 0 0 0 0 0 0 0 0 0 0 0 0 0 130 657 1202 1764 1770 1734 1718 1699 1595 992 863 843 928 746 788 696 329 462 471 1 123 283 105 145 96 88 80 68 87 133 124
0 0 0 0 0 0 0 0 0 0 0 0 0 0 0 0 0 0 0 287 818 1670 1784 1740 1823 1957 1831 1212 1159 1005 875 1014 919 898 890 904 582 325 202 181 25 109 70 51 51 47 53 55 112
0 0 0 0 0 0 0 0 0 0 0 0 0 0 0 0 0 0 0 0 24 934 1796 1694 1809 2112 1952 1406 1214 1150 849 940 1080 939 1132 842 570 452 279 73 37 64 129 52 42 26 32 48 82
0 0 0 0 0 0 0 0 0 0 0 0 0 0 0 0 0 0 0 0 0 80 1489 1634 1872 2016 2080 1653 1213 1161 1192 900 1107 1223 1049 749 493 469 283 100 98 142 116 117 61 30 53 54 90
0 0 0 0 0 0 0 0 0 0 0 0 0 0 0 0 0 0 0 0 0 0 1399 1631 1905 2043 2144 1884 1482 1188 1376 1145 1095 1110 1167 806 515 400 183 68 131 169 81 84 16 10 23 41 35
0 0 0 0 0 0 0 0 0 0 0 0 0 0 0 0 0 0 0 0 0 0 665 1620 1660 2098 2233 1795 1531 1144 1146 1034 994 744 874 889 621 421 228 65 8 70 22 6 0 0 7 19 22
0 0 0 0 0 0 0 0 0 0 0 0 0 0 0 0 0 0 0 0 0 0 0 1597 1726 1922 2278 1747 1318 1093 1008 837 920 741 724 797 792 502 325 100 5 104 41 0 0 0 0 1 18
0 0 0 0 0 0 0 0 0 0 0 0 0 0 0 0 0 0 0 0 0 0 0 1204 1666 1870 2085 1693 1425 1281 1186 945 708 899 729 607 708 511 330 199 28 90 77 0 0 0 0 0 2
0 0 0 0 0 0 0 0 0 0 0 0 0 0 0 0 0 0 0 0 0 0 0 144 1195 1831 2114 2072 1776 1564 1262 915 774 1036 889 733 714 443 256 172 59 111 77 0 0 0 0 0 0
0 0 0 0 0 0 0 0 0 0 0 0 0 0 0 0 0 0 0 0 0 0 0 110 853 1788 1959 2008 1539 777 383 461 452 532 484 434 427 350 205 87 40 44 106 13 0 0 0 0 0
0 0 0 0 0 0 0 0 0 0 0 0 0 0 0 0 0 0 0 0 0 0 0 0 205 1458 1667 1723 1582 1139 1128 745 534 522 485 374 316 386 195 48 24 1 40 43 12 0 0 0 0
7 0 0 1 0 0 0 0 0 0 0 0 0 0 0 0 0 0 0 0 0 0 21 0 0 732 1251 1593 1471 960 926 750 538 538 439 361 176 100 88 56 52 28 16 6 16 1 0 0 0
0 2 0 0 0 0 0 0 0 0 0 0 0 0 0 0 0 0 0 3 143 2 1 9 40 300 1241 1049 993 1063 923 511 413 347 197 136 120 85 12 24 28 19 0 0 0 2 0 0 0
0 2 2 1 0 2 0 0 0 0 0 0 0 0 190 44 7 101 209 220 500 209 45 53 129 1007 671 588 704 676 428 523 361 229 175 41 57 175 37 5 7 4 7 4 1 3 1 0 0
0 0 17 33 0 0 0 0 0 0 0 0 0 370 298 425 665 418 202 117 41 54 2 1 0 11 726 601 773 659 564 639 572 447 178 146 115 136 82 11 0 0 0 1 4 3 1 0 0
2 8 1 67 1 6 10 0 0 0 0 0 0 389 663 598 422 181 64 6 0 0 0 0 0 0 159 477 879 889 709 762 583 348 138 205 110 115 115 49 11 0 0 1 5 4 4 4 1
7 4 65 0 0 0 0 0 0 0 0 0 17 460 913 537 141 12 0 0 0 0 0 0 0 0 0 39 270 486 483 377 185 57 6 39 56 24 10 23 14 1 1 1 1 3 13 20 15
0 3 9 16 0 0 0 0 0 0 0 18 258 1027 637 134 83 14 0 0 0 0 0 0 0 0 2 0 4 181 183 144 65 14 5 5 0 0 0 0 0 0 0 1 2 2 1 1 8
0 0 7 23 4 0 1 0 0 0 147 368 733 780 172 35 7 0 0 0 0 0 0 0 0 0 0 0 3 53 193 97 4 6 21 0 0 0 0 0 0 0 0 0 1 3 1 1 12

GFSSGP_con_sbcape_126.txt.gz
CAPE
0 0 0 0 0 0 0 0 0 0 0 0 0 0 0 0 0 1 3 0 543 796 992 1050 1105 1267 1348 1518 1688 1673 1851 1793 1737 1842 1870 1805 1963 2031 1919 1602 1456 1343 1711 1542 1514 1588 1517 1587 1371
0 0 0 0 0 0 0 0 0 0 0 0 0 0 0 38 64 62 8 379 482 829 959 918 1004 1197 1323 1363 1529 1830 2013 1990 1887 1890 1844 1801 1772 1654 1304 1038 879 697 936 1538 1385 1580 1570 1359 1163
0 0 0 0 0 0 0 0 0 0 0 0 0 0 0 20 92 0 2 438 453 703 864 917 936 1093 1282 1361 1464 1721 2024 1927 1820 1808 1860 1606 1456 1417 1166 804 711 670 994 1010 1248 1610 1530 1226 1118
0 0 0 0 0 0 0 0 0 0 0 0 0 0 0 1 46 41 209 259 376 538 827 783 885 1060 1263 1465 1647 1814 1845 1745 1672 1743 1536 1512 1445 1380 1015 665 477 684 893 910 1083 1673 1438 1035 914
0 0 0 0 0 0 0 0 0 0 0 0 0 0 0 0 1 44 278 221 491 582 653 695 853 1087 1364 1683 1805 1758 1674 1623 1625 1508 1290 1315 1443 1103 666 356 485 576 467 551 652 1273 932 832 758
0 0 0 0 0 0 0 0 0 0 0 0 0 0 0 0 131 239 169 304 749 433 550 675 899 1116 1397 1694 1671 1376 1136 1360 1458 1341 1046 1229 896 735 674 336 367 513 273 751 709 846 819 725 677
0 0 0 0 0 0 0 0 0 0 0 0 0 0 0 0 40 123 272 1064 863 405 515 645 879 1071 1289 1472 1472 1136 1024 1143 1418 1005 818 773 616 366 551 451 176 349 367 598 404 802 612 513 211
0 0 0 0 0 0 0 0 0 0 0 0 0 0 0 0 0 174 1161 1169 905 591 525 567 725 876 989 1084 1211 1111 929 1021 1197 710 550 377 80 118 335 165 250 338 420 523 544 681 488 353 143
0 0 0 0 0 0 0 0 0 0 0 0 0 0 0 21 539 1195 1398 1411 1111 794 491 484 651 636 544 751 1013 967 825 919 937 603 295 69 11 2 163 25 85 294 360 377 835 562 442 154 92
0 0 0 0 0 0 0 0 0 0 0 0 0 10 126 65 807 1077 1249 1516 1429 1067 664 463 594 600 492 854 930 761 904 923 816 238 35 0 0 0 4 183 53 102 111 467 838 530 127 105 79
0 0 0 0 0 0 0 0 0 0 0 0 0 0 0 27 403 907 1087 1447 1582 1383 1031 685 642 680 720 809 759 781 756 767 673 130 0 0 0 0 0 41 176 40 259 354 314 184 73 78 62
0 0 0 0 0 0 0 0 0 0 0 0 0 0 0 0 0 455 847 1157 1336 1650 1494 1025 898 927 1022 724 567 708 738 673 582 322 0 0 0 0 0 0 0 41 146 218 105 83 45 64 65
0 0 0 0 0 0 0 0 0 0 0 0 0 0 0 0 0 0 98 1091 1266 1637 1734 1400 1184 1154 1246 1012 495 607 688 680 609 196 79 8 17 0 0 0 0 12 0 12 19 12 44 52 77
0 0 0 0 0 0 0 0 0 0 0 0 0 0 0 0 0 0 0 27 1332 1626 1673 1638 1475 1438 1430 1281 878 684 698 659 617 559 396 316 232 40 0 6 2 0 0 0 4 0 4 46 62
0 0 0 0 0 0 0 0 0 0 0 0 0 0 0 0 0 0 0 0 468 1644 1732 1570 1649 1652 1654 1248 1181 887 843 752 741 823 647 619 358 120 56 24 0 0 0 0 0 0 0 17 36
0 0 0 0 0 0 0 0 0 0 0 0 0 0 0 0 0 0 0 0 0 782 1520 1736 1877 1902 1772 1468 1354 1195 868 832 929 777 910 644 399 268 95 39 3 0 0 0 0 0 0 12 41
0 0 0 0 0 0 0 0 0 0 0 0 0 0 0 0 0 0 0 0 0 0 728 1712 1815 1977 1969 1627 1324 1255 1188 797 848 992 899 684 418 320 166 47 18 2 0 2 0 0 0 11 23
0 0 0 0 0 0 0 0 0 0 0 0 0 0 0 0 0 0 0 0 0 0 365 1444 1714 1947 2108 1843 1388 1065 1094 894 799 936 954 669 441 284 159 13 3 31 0 0 0 0 0 0 21
0 0 0 0 0 0 0 0 0 0 0 0 0 0 0 0 0 0 0 0 0 0 0 1111 1535 1850 2130 1799 1375 1129 1169 886 909 755 787 757 547 294 146 15 0 14 11 0 0 0 0 0 4
0 0 0 0 0 0 0 0 0 0 0 0 0 0 0 0 0 0 0 0 0 0 0 518 1416 1685 2174 1967 1784 1521 1315 921 995 746 590 661 628 457 391 205 33 0 7 0 0 0 0 0 2
0 0 0 0 0 0 0 0 0 0 0 0 0 0 0 0 0 0 0 0 0 0 0 0 1250 1712 2213 2048 1608 777 414 307 605 861 805 736 770 639 524 267 81 63 72 11 0 0 0 0 0
0 0 0 0 0 0 0 0 0 0 0 0 0 0 0 0 0 0 0 0 0 0 0 0 1101 1705 2170 1914 1563 1318 1433 1168 1121 1025 993 593 586 567 423 229 122 127 123 17 0 0 0 0 1
0 0 0 0 0 0 0 0 0 0 0 0 0 0 0 0 0 0 0 0 0 0 0 204 1220 1779 2032 1979 1666 1405 1387 1201 707 613 401 573 443 431 285 197 62 51 143 96 0 1 0 0 0
0 0 0 0 0 0 0 0 0 0 0 0 0 0 0 0 0 0 0 0 0 0 0 25 1186 1699 1795 1975 1728 1546 1206 683 462 533 463 414 338 238 194 164 124 68 102 109 14 0 0 1 0
0 0 0 0 0 0 0 0 0 0 0 0 0 0 0 0 0 0 9 188 110 30 73 197 548 697 1398 1608 1581 1449 989 644 548 457 389 254 150 120 97 110 80 76 79 44 17 1 2 2 0
0 0 7 4 0 0 0 0 0 0 0 0 0 0 150 554 327 71 37 57 45 27 11 33 75 636 565 598 945 966 655 537 434 341 177 136 160 116 38 21 33 33 19 11 8 5 7 1 0
0 0 0 34 4 9 0 0 0 0 0 0 0 0 726 283 90 23 10 0 0 0 0 0 8 61 288 512 458 221 156 242 274 143 67 35 35 79 36 13 3 0 3 6 7 6 3 0 2
7 0 2 3 40 6 0 0 0 0 0 0 0 5 30 63 23 1 1 0 0 1 0 0 0 4 13 109 370 570 337 296 255 154 168 164 94 102 59 3 0 0 0 1 1 4 2 12 4
0 3 1 16 16 81 0 0 106 165 352 423 400 30 0 4 6 3 2 2 1 0 0 0 0 0 0 6 24 167 120 77 89 23 86 159 57 10 38 18 9 1 0 0 0 6 12 19 20
0 0 1 19 0 8 6 0 17 26 96 1 3 21 7 2 3 3 1 1 0 1 0 0 0 0 0 0 0 0 119 30 0 0 0 0 0 0 0 0 0 0 0 0 1 3 9 3 5

GFSSGP_con_sbcape_129.txt.gz
CAPE
0 0 0 0 0 0 0 0 0 0 0 0 0 0 0 0 0 0 7 74 517 777 893 1034 1170 1357 1392 1410 1460 1571 1646 1632 1608 1734 1819 1873 1879 2006 1925 1871 1892 2004 2058 1769 1669 1780 1603 1557 1629
0 0 0 0 0 0 0 0 0 0 0 0 0 0 0 2 33 42 24 264 617 866 891 894 997 1232 1457 1475 1528 1717 1795 1697 1778 1761 1817 1918 1920 1823 1660 1345 1380 1786 2090 1945 1584 1590 1756 1562 1355
0 0 0 0 0 0 0 0 0 0 0 0 0 0 0 14 24 24 25 438 772 856 843 835 948 1090 1278 1433 1589 1766 1846 1649 1676 1682 1775 1868 1793 1606 1218 998 1167 1565 1973 2014 1634 1649 1664 1230 1115
0 0 0 0 0 0 0 0 0 0 0 0 0 0 0 0 0 0 250 484 689 782 738 805 865 1012 1196 1344 1571 1780 1706 1503 1479 1622 1672 1691 1646 1431 911 764 988 1455 1712 1892 2011 1696 1373 955 837
0 0 0 0 0 0 0 0 0 0 0 0 0 0 0 0 0 29 242 407 520 629 698 739 817 1044 1258 1498 1624 1691 1591 1453 1430 1548 1480 1523 1559 1288 766 671 983 1262 1439 1541 1841 1404 1049 792 786
0 0 0 0 0 0 0 0 0 0 0 0 0 0 0 0 85 4 111 243 317 555 665 753 884 1119 1284 1488 1541 1510 1468 1410 1409 1250 1241 1405 1285 1009 737 563 661 838 904 1084 1210 1028 821 717 537
0 0 0 0 0 0 0 0 0 0 0 0 0 0 0 0 23 6 7 171 290 469 638 812 962 1168 1243 1308 1362 1317 1319 1282 1306 1011 951 911 810 582 559 462 356 558 784 822 988 798 619 553 375
0 0 0 0 0 0 0 0 0 0 0 0 0 0 0 0 12 410 782 649 289 477 573 790 920 1083 1092 1108 1041 917 992 1047 1138 831 679 639 293 285 304 82 177 415 653 654 909 644 548 357 153
0 0 0 0 0 0 0 0 0 0 0 0 0 0 0 0 598 1052 1085 887 556 526 476 636 880 940 931 1000 947 800 755 965 921 644 447 213 8 31 115 0 79 310 376 486 755 552 406 204 96
0 0 0 0 0 0 0 0 0 0 0 0 0 0 0 82 367 931 1099 981 811 589 458 538 739 753 779 1128 1040 626 714 828 634 394 119 0 0 0 1 0 8 215 183 459 631 413 153 97 25
0 0 0 0 0 0 0 0 0 0 0 0 0 0 0 0 63 364 1091 1197 1031 828 627 513 657 659 837 1084 1050 782 792 1041 732 107 0 0 0 0 0 0 0 0 29 237 310 135 53 65 29
0 0 0 0 0 0 0 0 0 0 0 0 0 0 0 0 0 142 228 860 1188 1068 884 561 624 702 703 921 844 895 893 771 967 217 0 0 0 0 0 0 0 0 0 45 101 54 1 35 42
0 0 0 0 0 0 0 0 0 0 0 0 0 0 0 0 0 0 0 98 429 1280 1260 770 664 729 738 743 765 692 673 755 731 486 0 0 0 0 0 0 0 0 1 44 21 8 1 5 24
0 0 0 0 0 0 0 0 0 0 0 0 0 0 0 0 0 0 0 0 6 866 1549 1297 822 789 856 622 628 643 557 658 604 547 134 0 0 0 0 0 0 1 0 1 0 0 0 3 4
0 0 0 0 0 0 0 0 0 0 0 0 0 0 0 0 0 0 0 0 0 396 1464 1678 1266 936 1025 828 549 628 593 528 482 457 488 63 9 0 0 0 0 0 0 0 1 1 0 0 0
0 0 0 0 0 0 0 0 0 0 0 0 0 0 0 0 0 0 0 0 0 0 1362 1752 1800 1433 1193 1215 856 677 673 685 604 480 392 429 150 21 0 0 0 0 1 0 0 0 0 0 0
0 0 0 0 0 0 0 0 0 0 0 0 0 0 0 0 0 0 0 0 0 7 1095 1673 1870 1741 1598 1317 1231 988 761 715 757 757 495 492 378 138 30 14 0 0 0 0 0 0 0 0 0
0 0 0 0 0 0 0 0 0 0 0 0 0 0 0 0 0 0 0 0 0 0 403 1492 1807 1967 1887 1605 1306 1192 851 835 866 828 871 563 527 269 71 30 0 0 0 0 0 0 0 0 1
0 0 0 0 0 0 0 0 0 0 0 0 0 0 0 0 0 0 0 0 0 0 0 572 1668 1890 1995 1816 1464 1296 1348 952 903 1048 894 757 587 325 167 64 0 9 0 0 0 0 0 0 0
0 0 0 0 0 0 0 0 0 0 0 0 0 0 0 0 0 0 0 0 0 0 0 0 1039 1816 2032 1938 1773 1526 1474 1222 972 1067 1033 809 563 299 211 53 26 79 8 0 0 0 0 0 0
0 0 0 0 0 0 0 0 0 0 0 0 0 0 0 0 0 0 0 0 0 0 0 0 402 1483 2009 2063 1896 1193 574 572 918 909 1044 906 591 415 423 92 90 85 33 2 0 0 0 0 1
0 0 0 0 0 0 0 0 0 0 0 0 0 0 0 0 0 0 0 0 0 0 0 0 111 1259 1901 2080 1864 1476 1577 1324 1426 1349 1152 994 805 610 567 374 189 149 132 36 4 0 1 0 0
0 0 0 0 0 0 0 0 0 0 0 0 0 0 0 0 0 0 0 0 0 0 0 0 5 1086 1773 2069 1893 1669 1637 1475 1203 1463 1291 923 999 851 712 437 239 191 174 130 15 0 0 1 1
0 0 0 0 0 0 0 0 0 0 0 0 0 0 0 0 0 0 0 0 0 0 0 0 0 1112 1786 2058 1862 1745 1679 1242 1012 1194 1199 977 753 698 505 404 296 248 237 109 15 5 0 0 0
0 0 0 0 0 0 0 0 1 0 0 0 0 0 0 0 0 0 0 0 58 1 32 66 1084 1661 2038 2040 1844 1738 1643 1112 1078 983 718 771 628 579 432 355 242 183 188 176 56 16 1 5 3
0 0 2 9 1 0 0 0 0 0 71 28 0 0 103 385 287 205 279 179 167 26 38 413 863 1100 1907 2135 1814 1580 924 861 775 721 703 588 512 463 317 283 248 190 119 140 70 43 24 4 3
0 0 0 8 0 3 0 0 0 3 206 180 38 62 432 265 33 21 2 5 26 12 0 0 297 526 618 553 353 614 696 619 655 604 478 400 317 228 149 241 174 114 90 67 38 52 36 15 2
0 0 1 31 10 0 0 0 0 0 39 24 20 9 0 4 33 10 6 5 2 1 1 0 1 6 57 200 319 295 343 378 316 265 179 68 56 9 42 38 35 25 22 16 14 30 25 17 14
0 0 0 8 0 30 10 0 0 22 50 24 31 13 17 3 16 32 12 8 7 4 3 2 1 1 1 11 100 211 300 330 196 206 99 45 19 40 22 0 1 0 0 0 5 8 18 15 14
0 0 0 12 0 0 8 0 29 64 62 36 4 10 56 28 11 23 6 2 4 7 1 2 2 2 0 1 0 53 147 68 77 62 44 54 40 31 18 0 0 0 0 0 0 0 0 2 14

GFSSGP_con_sbcape_135.txt.gz
CAPE
0 0 0 0 0 0 0 0 0 0 0 0 0 0 0 0 0 1 138 298 678 1316 1437 1427 1327 1360 1316 1326 1296 1408 1668 1920 1987 1992 1979 1937 1957 1994 2042 2061 2159 2181 2176 2059 1811 1765 1683 2125 1703
0 0 0 0 0 0 0 0 0 0 0 0 0 0 0 0 0 130 482 438 900 1448 1487 1588 1276 1364 1422 1403 1404 1544 1825 1932 1907 1951 1973 1969 1981 2024 2079 2066 1987 2085 2089 2143 1699 1570 1616 1667 1565
0 0 0 0 0 0 0 0 0 0 0 0 0 0 0 0 0 103 151 505 1120 1470 1528 1627 1296 1337 1473 1479 1495 1613 1722 1708 1789 1807 1974 1998 2000 2045 1992 1916 1871 2097 2118 2022 1642 1909 1737 1430 1263
0 0 0 0 0 0 0 0 0 0 0 0 0 0 0 0 0 5 344 952 1244 1523 1552 1292 1209 1338 1495 1602 1637 1693 1615 1529 1626 1725 1977 2139 2096 1939 1766 1600 1808 2027 2068 1983 1949 2010 1458 1182 1125
0 0 0 0 0 0 0 0 0 0 0 0 0 0 0 0 0 243 772 1163 1247 1475 1581 1657 1214 1390 1552 1770 1793 1711 1525 1431 1554 1742 1861 1897 1819 1471 1300 1321 1567 1779 1894 1974 1884 1482 1145 1014 949
0 0 0 0 0 0 0 0 0 0 0 0 0 0 0 0 0 21 719 948 1027 1443 1459 1680 1221 1386 1572 1759 1786 1666 1447 1370 1465 1635 1658 1620 1358 1022 995 1161 1341 1258 1290 1324 1336 1095 954 837 700
0 0 0 0 0 0 0 0 0 0 0 0 0 0 0 0 0 96 492 735 978 1177 1277 1456 1704 1632 1414 1637 1732 1533 1357 1323 1346 1402 1417 1221 900 619 786 1019 1141 1060 1076 1082 1065 830 781 720 584
0 0 0 0 0 0 0 0 0 0 0 0 0 0 0 0 61 543 577 689 924 1097 1161 1238 1539 1709 1863 2050 1526 1274 1223 1249 1195 1176 1147 911 688 448 453 637 712 813 794 898 769 637 587 507 363
0 0 0 0 0 0 0 0 0 0 0 0 0 0 0 0 29 558 589 691 831 1005 1115 1215 1413 1359 1190 1523 1778 1162 1068 1120 1048 1042 836 734 1173 875 520 274 286 510 533 619 529 395 351 271 155
0 0 0 0 0 0 0 0 0 0 0 0 0 0 0 0 0 0 552 537 661 836 1040 1131 1145 1089 966 1072 1373 1837 1706 1840 1812 1551 1454 1334 1147 930 515 146 110 354 299 284 382 134 36 273 932
0 0 0 0 0 0 0 0 0 0 0 0 0 0 0 0 0 0 368 804 583 762 830 859 872 877 987 988 1124 1340 1441 1479 1352 1638 1433 1156 894 650 300 349 251 745 474 843 534 360 738 845 709
0 0 0 0 0 0 0 0 0 0 0 0 0 0 0 0 0 0 0 0 994 1195 1060 976 869 850 1007 957 999 1123 1129 1190 1161 1063 1355 1018 792 703 329 187 342 437 760 597 801 710 748 769 875
0 0 0 0 0 0 0 0 0 0 0 0 0 0 0 0 0 0 0 0 0 1099 1462 1148 1067 1003 930 1047 998 1142 1031 1231 1091 983 938 1030 745 573 297 157 256 254 527 307 461 380 862 757 585
0 0 0 0 0 0 0 0 0 0 0 0 0 0 0 0 0 0 0 0 0 0 1186 1704 1282 1404 1204 1233 1076 1230 1623 1817 1194 1086 638 891 680 403 321 177 152 257 429 596 327 302 163 716 646
0 0 0 0 0 0 0 0 0 0 0 0 0 0 0 0 0 0 0 0 0 0 0 1366 1676 1629 1520 1487 1272 1256 1433 1285 1109 1027 761 584 609 330 285 257 97 175 274 540 94 65 17 363 151
0 0 0 0 0 0 0 0 0 0 0 0 0 0 0 0 0 0 0 0 0 0 0 0 1176 1556 1570 1385 1617 1597 1482 1286 1061 828 852 508 595 277 247 261 158 274 181 78 3 4 2 26 44
0 0 0 0 0 0 0 0 0 0 0 0 0 0 0 0 0 0 0 0 0 0 0 0 59 1808 1816 1772 1638 1744 1637 1422 1034 875 829 675 597 311 335 300 231 30 47 5 1 4 99 7 20
0 0 0 0 0 0 0 0 0 0 0 0 0 0 0 0 0 0 0 0 0 0 0 0 0 1072 2048 1863 1606 1477 1423 1333 1225 1018 767 601 561 475 380 438 143 31 6 6 3 193 218 285 213
0 0 0 0 0 0 0 0 0 0 0 0 0 0 0 0 0 0 0 0 0 0 0 0 0 170 1902 1882 1410 1209 1177 1295 1295 1049 956 689 583 483 462 427 184 40 2 0 87 231 197 19 67
0 0 0 0 0 0 0 0 0 0 0 0 0 0 0 0 0 0 0 0 0 0 0 0 0 0 1580 1800 1829 1721 1634 1371 1328 1223 868 772 636 532 475 640 394 100 119 72 67 178 73 41 5
0 0 0 0 0 0 0 0 0 0 0 0 0 0 0 0 0 0 0 0 0 0 0 0 0 0 1222 1873 1923 1990 1829 1786 1469 1145 898 895 816 656 487 493 344 239 235 72 66 351 244 88 2
0 0 0 0 0 0 0 0 0 0 0 0 0 0 0 0 0 9 17 40 0 0 0 0 0 0 711 2303 2263 1982 1856 1819 1613 1421 1324 1122 876 753 589 417 542 369 264 139 40 264 329 211 26
0 0 0 0 0 0 0 0 0 0 0 0 0 0 4 9 29 3 192 34 0 0 0 0 0 0 26 2265 2572 2382 2467 2389 2279 1782 1566 1172 851 782 581 473 466 521 360 310 90 59 272 295 199
0 0 0 0 0 0 0 0 0 0 0 0 0 1 51 48 57 117 33 285 66 0 0 0 0 0 0 2117 2731 2725 2669 2527 2409 2016 1716 1200 966 807 568 498 477 630 475 378 221 134 187 415 361
0 0 0 0 0 0 0 0 0 0 0 0 0 0 20 29 39 51 16 11 82 357 0 0 0 0 0 1697 2649 2870 2804 2745 2462 2139 1954 1371 1222 935 693 530 486 853 928 576 177 103 271 525 622
0 0 0 0 0 0 0 0 0 0 0 0 0 17 21 23 20 32 10 20 13 11 374 0 0 0 44 1515 2690 2966 2949 2604 2459 2278 2217 1702 1328 1336 1010 637 751 875 737 503 226 94 151 476 467
0 0 0 0 0 2 0 0 0 0 0 0 2 13 18 17 25 22 6 10 15 8 5 325 650 75 322 1567 2789 2937 2882 2414 2403 2354 2375 1744 1474 1173 1053 759 751 724 682 635 438 179 109 63 38
0 0 0 0 0 0 0 0 0 0 0 0 8 21 16 9 23 10 17 14 14 14 4 2 2 89 511 1709 2672 2812 2644 2198 2077 2128 2111 1848 1555 1017 965 767 659 574 606 555 240 223 136 75 51
0 0 0 0 0 5 6 0 0 0 0 9 6 18 17 11 9 14 15 11 7 9 6 3 4 4 2 2 624 1984 1749 1762 1780 1762 1744 1720 1161 719 659 537 482 387 344 286 212 145 70 45 27
0 0 0 0 0 8 8 1 0 0 1 11 27 26 19 15 9 9 7 3 12 7 9 5 5 5 3 1 2 3 22 244 628 585 285 323 348 162 217 218 237 262 258 249 145 53 20 34 14

GFSSGP_con_sbcape_138.txt.gz
CAPE
0 0 0 0 0 0 0 0 0 0 0 0 0 0 0 0 0 98 21 798 639 1385 1712 1654 1411 1413 1351 1364 1286 1540 1981 2232 2262 2085 2053 2101 2124 2209 2298 2310 2340 2307 2291 1923 1651 1612 1832 1934 1607
0 0 0 0 0 0 0 0 0 0 0 0 0 0 0 0 0 0 338 518 829 1549 1879 1673 1385 1433 1452 1379 1395 1601 2143 2266 2281 2209 2116 2132 2221 2284 2354 2352 2273 2326 2407 2011 1553 1429 1663 1651 1245
0 0 0 0 0 0 0 0 0 0 0 0 0 0 0 0 0 0 1 533 951 1614 1873 1902 1377 1427 1557 1498 1527 1670 1903 1986 2090 2134 2199 2249 2293 2261 2049 1990 2087 2269 2403 2196 1619 1467 1806 1489 1212
0 0 0 0 0 0 0 0 0 0 0 0 0 0 0 0 0 0 170 984 1151 1703 1962 1324 1277 1447 1609 1691 1702 1772 1727 1680 1789 1981 2214 2284 2282 2071 2099 1974 2035 2272 2327 2142 1951 1949 1507 1102 928
0 0 0 0 0 0 0 0 0 0 0 0 0 0 0 0 0 0 242 1198 1337 1863 2109 2222 1247 1448 1688 1863 1896 1790 1624 1574 1653 1890 2114 2201 2136 2058 1896 1828 1938 2018 2037 2024 1691 1571 1246 1015 878
0 0 0 0 0 0 0 0 0 0 0 0 0 0 0 0 0 0 139 1159 1758 2071 2237 2410 1403 1415 1610 1808 1803 1699 1497 1509 1610 1801 1951 1962 1705 1574 1592 1652 1745 1695 1679 1575 1482 1225 1099 767 796
0 0 0 0 0 0 0 0 0 0 0 0 0 0 0 0 0 0 281 980 1601 2071 2281 2414 2355 1874 1413 1612 1707 1626 1413 1408 1556 1730 1759 1581 1198 1098 1265 1414 1550 1528 1424 1368 1249 979 907 650 610
0 0 0 0 0 0 0 0 0 0 0 0 0 0 0 0 0 0 4 951 1271 1761 2077 2246 2301 2250 2203 2139 1618 1499 1320 1245 1426 1531 1518 1196 839 757 896 1098 1245 1216 1228 1194 1019 774 751 616 368
0 0 0 0 0 0 0 0 0 0 0 0 0 0 0 0 0 0 0 224 1112 1432 1794 1915 1924 2020 1988 1931 1862 1422 1099 1046 1097 1281 1106 1008 1496 1264 1074 1031 872 949 923 942 691 490 432 166 108
0 0 0 0 0 0 0 0 0 0 0 0 0 0 0 0 0 0 0 0 64 932 1438 1659 1830 1842 1823 1503 1603 1920 1914 2081 2043 1975 2021 1814 1688 1493 1001 735 511 653 651 515 384 172 42 278 1276
0 0 0 0 0 0 0 0 0 0 0 0 0 0 0 0 0 0 0 0 0 305 1081 1379 1656 1786 1752 1532 1617 1785 1856 1994 2090 2063 2056 1907 1778 1669 1219 1011 617 1049 571 907 532 705 1225 1148 1230
0 0 0 0 0 0 0 0 0 0 0 0 0 0 0 0 0 0 0 0 0 0 687 1236 1335 1630 1756 1581 1620 1677 1645 1821 1821 1954 2222 2132 1965 1685 1213 1078 804 909 899 932 927 896 1089 862 1341
0 0 0 0 0 0 0 0 0 0 0 0 0 0 0 0 0 0 0 0 0 0 0 320 1335 1433 1600 1733 1553 1785 1686 1740 1743 1710 1835 2101 1781 1745 1370 931 860 869 886 1017 1063 1052 1218 1268 1247
0 0 0 0 0 0 0 0 0 0 0 0 0 0 0 0 0 0 0 0 0 0 0 0 555 1660 1539 1607 1694 1819 1988 1750 1889 1815 1614 2127 1825 1746 1364 1000 771 686 891 835 989 1068 1101 1083 1128
0 0 0 0 0 0 0 0 0 0 0 0 0 0 0 0 0 0 0 0 0 0 0 0 0 1017 1869 1631 1680 1837 1856 2133 2129 1774 1711 1793 2011 1800 1341 1065 767 781 957 891 1075 1159 1228 1085 1059
0 0 0 0 0 0 0 0 0 0 0 0 0 0 0 0 0 0 0 0 0 0 0 0 0 0 1527 1942 1725 1742 1660 2222 2081 1909 1618 1560 1979 1733 1371 1122 859 786 976 1099 1099 1118 672 771 942
0 0 0 0 0 0 0 0 0 0 0 0 0 0 0 0 0 0 0 0 0 0 0 0 0 0 0 1598 2036 2273 2077 2082 2023 1902 1679 1482 1828 1834 1353 1136 991 926 865 934 719 654 783 682 713
0 0 0 0 0 0 0 0 0 0 0 0 0 0 0 0 0 0 0 0 0 0 0 0 0 0 0 552 2158 1965 1895 1904 1840 1839 1734 1657 1536 1844 1636 1132 1152 1095 873 756 550 392 753 734 630
0 0 0 0 0 0 0 0 0 0 0 0 0 0 0 0 0 2 3 3 0 0 0 0 0 0 0 1 1139 2045 2328 2229 2133 1904 1724 1808 1455 1905 1706 1253 1312 831 800 659 482 441 745 776 506
0 0 0 0 0 0 0 0 0 0 0 0 0 0 2 5 4 10 13 5 11 8 17 0 0 0 0 0 545 1836 2336 2706 2225 2265 1964 1899 1616 1497 1885 1678 1436 608 679 732 559 832 759 610 705
0 0 0 0 0 0 0 0 0 0 0 0 0 1 2 8 19 19 16 30 33 32 203 103 0 0 0 0 110 1490 1798 2216 2194 2397 2014 2152 1616 1228 1567 1812 1635 860 894 581 514 1024 825 542 302
0 0 0 0 0 0 0 0 0 0 0 0 0 0 4 12 6 4 24 30 12 25 46 295 22 0 0 0 65 1387 1541 1530 1793 2030 2214 2199 1719 1460 1233 1592 1746 1499 1133 987 631 1123 989 811 286
0 0 0 0 0 0 0 0 0 0 0 0 0 1 14 10 8 26 19 21 4 3 20 17 0 0 0 0 1 1444 1688 1455 1888 1849 2272 2365 2024 1398 1105 1310 1418 1383 1082 1469 1220 1041 1489 1295 795
0 0 0 0 0 0 0 0 0 0 0 0 0 16 22 9 15 21 16 15 8 5 16 8 66 0 0 0 26 1745 2255 1860 1781 2305 2546 2457 2120 1458 1158 1008 1132 1323 1145 1157 877 891 1385 1289 1081
0 0 0 0 0 0 0 0 0 0 0 1 14 29 3 19 22 7 21 11 9 8 18 21 226 0 0 0 15 1909 2355 2368 2593 2367 2541 2422 2040 1391 1289 1141 1061 1139 1205 1120 956 726 814 1426 1295
0 0 0 0 0 0 0 0 0 0 0 5 15 5 9 16 15 12 19 16 8 17 15 16 50 0 0 0 3 1576 2384 2246 2356 2457 2508 2611 2337 1747 1513 1197 1125 1087 1151 1071 909 657 887 1638 1855
0 0 0 0 0 0 0 0 0 0 0 3 8 10 13 9 16 15 13 13 7 13 24 21 8 263 7 0 21 1271 2494 2320 2330 2413 2699 2642 2547 2049 1795 1368 1082 1119 1135 1063 1047 864 764 1404 1755
0 0 1 2 0 0 0 0 0 0 1 5 9 9 12 13 12 25 14 7 8 9 20 7 6 7 6 839 957 1706 2288 2449 2490 2630 2731 2909 2793 2268 1847 1379 1118 953 978 1068 1073 1025 1031 1151 1088
0 0 0 0 0 1 0 0 0 4 3 8 8 12 20 19 23 32 20 4 9 0 8 10 9 11 8 5 7 1162 2036 2429 2604 2798 2713 2590 2450 2152 1848 1531 1193 916 967 819 697 829 1232 857 751
0 0 0 5 8 15 22 4 0 1 1 8 11 10 15 16 17 18 20 5 9 0 7 5 7 11 14 5 4 3 2 57 699 2047 2524 2462 2362 1795 1541 1202 937 627 609 531 522 666 543 694 449

GFSSGP_con_sbcape_141.txt.gz
CAPE
0 0 0 0 0 0 0 0 0 0 0 0 0 0 0 0 0 14 0 333 787 990 1997 1606 1450 1463 1409 1490 1632 2000 2163 2330 2406 2211 2128 2205 2229 2231 2335 2377 2273 2271 2285 1910 1652 1691 1425 1598 1361
0 0 0 0 0 0 3 0 0 0 0 0 0 0 0 0 0 0 0 141 637 1201 2047 1687 1381 1447 1510 1482 1660 2069 2359 2450 2378 2262 2246 2271 2304 2358 2414 2442 2352 2277 2127 1692 1669 1425 1485 1594 1341
0 0 0 0 0 0 2 0 0 0 0 0 0 0 0 0 0 0 0 709 1017 1451 2018 2070 1424 1426 1520 1486 1573 1980 2314 2319 2311 2247 2332 2366 2387 2425 2229 2222 2166 2318 2274 1904 1445 1472 1765 1345 1181
0 0 0 0 0 0 0 0 0 0 0 0 0 0 0 0 0 0 0 912 1301 1465 1997 1349 1437 1476 1588 1586 1642 1793 2007 2008 2092 2141 2317 2214 2313 2084 1922 1881 2081 2418 2275 2029 1712 1759 1433 1134 1010
0 0 0 0 0 0 0 0 0 0 0 0 0 0 0 0 0 0 11 775 1845 1499 2298 2534 1464 1529 1719 1836 1837 1731 1686 1772 1925 2101 2212 2184 2096 2006 1859 1836 1831 2244 2248 2145 1929 1516 1232 964 888
0 0 0 0 0 0 0 0 0 0 0 0 0 0 0 0 0 0 0 629 1692 2148 2332 2921 1504 1594 1754 1871 1786 1602 1484 1545 1713 1988 2106 2082 2016 1833 1837 1732 1781 2004 1886 1720 1569 1275 1076 872 800
0 0 0 0 0 0 0 0 0 0 0 0 0 0 0 0 0 0 0 453 1309 2160 2608 2801 2575 1974 1658 1759 1735 1601 1420 1396 1567 1848 1953 1903 1667 1615 1676 1750 1642 1787 1701 1581 1307 1059 889 715 614
0 0 0 0 0 0 0 0 0 0 0 0 0 0 0 0 0 0 0 110 1194 1762 2379 2605 2766 2645 2564 2358 1685 1610 1420 1309 1443 1677 1741 1525 1308 1250 1301 1368 1514 1582 1493 1414 1164 881 607 575 376
0 0 0 0 0 0 0 0 0 0 0 0 0 0 0 0 0 0 0 0 52 1259 1878 2262 2396 2529 2559 2519 2259 1620 1356 1193 1288 1430 1432 1357 1795 1678 1542 1266 1176 1308 1271 1180 966 726 470 256 75
0 0 0 0 0 0 0 0 0 0 0 0 0 0 0 0 0 0 0 0 0 0 1187 1801 2085 2063 2184 1790 2413 2218 2182 1997 1927 1849 2137 2006 1927 1759 1453 1143 895 978 1022 926 733 516 100 233 1085
0 0 0 0 0 0 0 0 0 0 0 0 0 0 0 0 0 0 0 0 0 0 36 1255 1700 1936 2026 1712 1812 2113 1984 1964 1943 2295 2176 2083 1969 2283 1564 1570 1262 1256 735 1047 689 673 880 852 1308
0 0 0 0 0 0 0 0 0 0 0 0 0 0 0 0 0 0 0 0 0 0 0 0 1427 1670 2055 1704 1574 1660 1838 2223 1973 2149 2788 2302 2413 2243 1659 1352 1138 1179 989 1056 815 745 739 1047 1225
0 0 0 0 0 0 0 0 0 0 0 0 0 0 0 0 0 0 0 0 0 0 0 0 0 1352 1731 2038 1590 1856 1881 2081 2394 2321 2499 2518 2184 2463 1634 1631 1172 945 957 1306 1200 849 1080 1391 1249
0 0 0 0 0 0 0 0 0 0 0 0 0 0 0 0 0 0 0 0 0 0 0 0 0 0 1575 1928 2217 2312 2177 1932 2260 2289 2225 2572 2583 2610 1551 1582 1177 898 852 847 1336 1154 1383 1579 1055
0 0 0 0 0 0 0 0 0 0 0 0 0 0 0 0 0 0 0 0 0 0 0 0 0 0 0 1595 2196 2186 1867 2108 2066 2186 2254 2413 2877 2668 2304 1638 1275 953 1051 1247 1626 1760 1411 1483 990
0 0 0 0 0 0 0 0 0 0 0 0 0 0 0 0 0 0 0 0 0 0 0 0 0 0 0 0 2436 2221 2088 2275 2233 2303 2507 2289 3035 2737 2580 1656 1539 1137 1257 1045 1236 1080 1390 1540 1108
0 0 0 0 0 0 0 0 0 0 0 0 0 0 0 0 0 0 0 0 0 0 0 0 0 0 0 0 111 2978 2839 2655 2474 2592 2692 2583 2679 2791 2482 1952 1785 1919 1250 1255 1390 1319 1365 1219 1054
0 0 0 0 0 0 0 0 0 0 0 0 0 0 0 0 0 0 3 4 8 0 0 0 1 7 2 0 0 493 2578 2869 2648 2564 2793 3005 2397 2916 2858 2080 2029 1810 1595 1431 1436 1418 1348 1140 794
0 0 0 0 0 0 0 0 0 0 0 0 0 0 1 3 12 19 0 0 0 0 2 0 0 0 97 0 0 0 1561 2341 2675 2729 2673 3023 2347 2857 2939 2425 2280 2008 1822 1731 1862 1067 1136 1313 956
0 0 0 0 0 0 0 0 0 0 0 0 0 0 0 5 13 9 1 0 0 2 3 4 0 0 0 40 0 0 0 2208 2404 2755 2645 2854 2733 2626 2876 2718 2330 2192 1910 1972 1819 1427 1185 1388 796
0 0 0 0 0 0 0 0 0 0 0 0 0 0 6 9 11 1 0 0 5 1 9 4 2 2 2 102 9 0 0 694 2208 2283 2533 2824 2967 2442 2914 2841 2574 2353 2025 1906 1816 1564 1460 1260 1221
0 0 0 0 0 0 0 0 0 0 0 0 0 9 7 4 5 0 2 0 10 2 18 5 6 8 3 64 357 11 0 233 1727 2230 2170 2854 2918 2486 2564 2779 2764 2273 1923 1982 1798 1629 1839 1553 1167
0 0 0 0 0 0 0 0 0 0 0 0 0 3 9 12 3 0 1 7 10 9 20 11 5 5 8 14 573 21 47 338 1574 2163 1723 2384 2816 2644 2187 2758 2770 2524 2014 2110 1864 1634 2139 1748 1098
0 0 0 0 0 0 0 0 0 0 0 0 2 2 8 8 6 3 4 10 9 8 23 11 7 2 6 3 620 322 58 552 2109 2035 1854 1551 2373 2513 1860 1920 2814 2905 2220 2258 2043 1688 2166 1843 1645
0 0 0 0 0 0 0 0 0 0 0 0 0 2 8 10 15 6 8 10 11 13 24 10 5 6 4 44 564 183 172 24 1968 2110 2156 1108 1756 2441 1830 1498 2380 2790 2582 2289 2418 1908 2085 2087 1792
0 0 0 0 0 0 0 0 0 0 0 0 0 1 8 3 6 9 13 18 18 12 15 7 10 11 10 119 233 224 202 56 1914 1908 1744 555 161 1310 2083 1496 1658 2485 2633 2249 2415 2093 1941 2192 2256
0 0 0 0 0 0 0 0 0 0 0 0 0 0 6 4 5 13 11 11 15 11 13 7 13 10 13 26 582 245 334 224 1851 2206 2370 555 35 4 1825 1635 1501 1525 2160 2153 1996 1752 1699 2023 2226
0 0 0 0 0 0 0 0 0 0 0 0 1 5 6 9 5 11 12 17 16 13 9 7 12 11 15 20 10 625 282 956 2344 2027 1439 1246 1181 1271 1794 1687 1493 1322 1308 1642 1527 1305 1234 1331 2162
0 0 0 0 0 0 0 0 0 0 0 4 9 9 8 10 10 10 14 19 21 9 7 3 11 11 18 14 11 12 188 485 1778 2044 1774 1266 1567 1835 2060 2107 1518 1236 1132 1233 1223 957 933 1061 1797
0 0 0 0 0 0 0 0 0 0 6 2 5 7 8 9 8 6 8 18 24 10 6 4 7 14 11 22 10 15 7 6 6 21 1135 1757 1905 2341 2262 2293 1678 1063 1087 1060 1134 1022 943 1210 1208

GFSSGP_con_sbcape_144.txt.gz
CAPE
0 0 0 0 0 0 0 0 0 0 0 0 0 0 0 0 0 0 0 166 983 1606 1739 1558 1424 1422 1475 1626 1858 2086 2303 2406 2287 2133 2128 2203 2174 2196 2268 2256 2207 2298 2447 2094 1963 1700 1562 1591 1337
0 0 0 0 0 0 0 0 0 0 0 0 0 0 0 0 0 0 0 368 1184 1375 2307 1789 1414 1396 1489 1562 1810 2148 2435 2540 2384 2272 2256 2272 2311 2310 2286 2094 1978 1964 2172 1867 1728 1619 1616 1434 1298
0 0 0 0 0 0 0 0 0 0 0 0 0 0 0 0 0 0 17 485 1264 1727 2437 1839 1412 1403 1474 1460 1702 2103 2438 2336 2296 2266 2365 2376 2421 2352 2103 1951 2007 1672 2209 1857 1645 1532 1630 1343 1106
0 0 0 0 0 0 0 0 0 0 0 0 0 0 0 0 0 0 0 610 1925 1595 2492 1212 1415 1425 1513 1478 1558 1953 2144 2165 2164 2226 2406 2467 2421 2163 2111 2036 2021 1931 2270 1925 1801 1651 1427 1051 942
0 0 0 0 0 0 0 0 0 0 0 0 0 0 0 0 0 0 0 740 1895 2813 2457 1812 1445 1541 1674 1703 1634 1680 1847 1954 2045 2172 2269 2266 2230 2121 2009 1848 1885 1697 1861 1815 1869 1392 1190 944 891
0 0 0 0 0 0 0 0 0 0 0 0 0 0 0 0 0 0 0 1059 2053 2679 3234 2201 1589 1697 1754 1794 1679 1549 1511 1678 1838 2028 2062 2054 1987 1913 1853 1769 1780 1834 1737 1749 1346 1231 1042 835 797
0 0 0 0 0 0 0 0 0 0 0 0 0 0 0 0 0 0 0 904 1627 2497 3109 3364 2414 1838 1774 1729 1635 1513 1378 1452 1637 1862 1945 1914 1793 1694 1746 1711 1607 1731 1725 1583 1145 1045 859 716 657
0 0 0 0 0 0 0 0 0 0 0 0 0 0 0 0 0 0 0 86 1422 1948 2585 2977 3088 2554 2421 2066 1598 1512 1401 1300 1496 1714 1761 1705 1524 1485 1549 1549 1519 1627 1548 1405 1157 908 677 582 392
0 0 0 0 0 1 0 0 0 0 0 0 0 0 0 0 0 0 0 0 0 335 2118 2645 3014 3113 3110 2953 2017 1390 1375 1289 1364 1474 1613 1371 1789 1558 1452 1427 1333 1491 1320 1266 1044 736 537 368 154
0 0 0 0 0 0 0 0 0 0 0 0 0 0 0 0 0 0 0 0 0 0 0 2258 2728 2854 2907 2424 2207 2175 2009 1750 1720 1782 1733 1876 1826 1886 1497 1339 1092 1195 1179 1094 851 616 319 76 345
0 0 0 0 0 0 0 0 0 0 0 0 0 0 0 0 0 0 0 0 0 0 0 0 1216 2779 2928 2383 2344 2235 2216 2025 2018 2097 2178 1940 1874 1948 1339 1017 988 1062 827 932 625 387 326 463 773
0 0 0 0 0 0 0 0 0 0 0 0 0 0 0 0 0 0 0 0 0 0 0 0 0 0 2651 2405 2023 2086 1800 2074 2114 2101 2091 2319 2075 2047 1781 1520 1409 1186 896 964 711 699 607 700 845
0 0 0 0 0 0 0 0 0 0 0 0 0 0 0 0 0 0 0 0 0 0 0 0 0 0 0 2307 2081 2251 1926 2151 2021 2314 2257 2387 2066 1938 1752 1697 1290 1017 1084 772 765 672 615 841 684
0 0 0 0 0 0 0 0 0 0 0 0 0 0 0 0 0 0 0 0 0 0 0 0 0 0 0 0 447 1915 2494 2053 2098 2204 2442 2483 2155 2063 1779 1726 1503 1044 1058 792 956 769 955 844 896
0 0 0 0 0 0 0 0 0 0 0 0 0 0 0 0 0 0 0 0 0 0 0 0 0 0 0 0 0 35 1762 2112 2076 2106 2267 2604 2381 2253 2113 1566 1626 1280 992 983 919 859 886 731 914
0 0 0 0 0 0 0 0 0 0 0 0 0 0 0 0 0 0 0 0 0 0 0 0 0 0 0 0 0 0 0 1726 2009 2106 2149 2202 2433 2335 2380 1790 1541 1290 1198 1319 928 961 804 736 677
0 0 0 0 0 0 0 0 0 0 0 0 0 0 0 0 0 0 0 0 0 0 0 0 0 0 0 0 0 0 0 0 1899 2018 2138 2152 2143 2332 2474 1801 1581 1322 1349 1062 1130 812 928 696 573
0 0 0 0 0 0 0 0 0 0 0 0 0 0 0 0 0 0 0 0 0 0 0 0 0 0 0 0 0 0 0 0 42 1912 1996 2215 2012 2249 2403 1906 1706 1354 1297 1256 1069 958 1107 799 786
0 0 0 0 0 0 0 0 0 0 0 0 0 0 0 0 0 0 0 0 0 0 0 0 0 0 0 0 0 0 0 0 0 1341 1647 2107 2068 2037 2476 2153 1712 1371 1212 1299 1199 1081 1095 1004 763
0 0 0 0 0 0 0 0 0 0 0 0 0 0 0 0 0 0 0 0 0 0 0 0 0 2 0 1 2 0 0 0 0 75 1359 1460 2048 1966 2338 2126 1651 1472 1229 1391 1303 1123 1123 868 779
0 0 0 0 0 0 0 0 0 0 0 0 0 0 0 0 0 0 0 0 0 0 0 0 1 1 4 6 3 1 0 0 0 0 1168 1272 1477 2010 2002 2124 1702 1600 1226 1295 1358 1020 943 897 785
0 0 0 0 0 0 0 0 0 0 0 0 0 0 0 0 0 0 0 0 0 0 1 1 4 5 6 10 7 12 10 1 0 0 0 1328 1071 1446 1313 1768 1730 1624 1297 1305 1399 1184 833 766 855
0 0 0 0 0 0 0 0 0 0 0 0 0 0 0 0 0 0 0 0 0 2 3 0 4 5 8 5 10 14 11 4 0 9 0 752 1131 757 1565 1725 1532 1673 1428 1268 1278 1159 915 984 983
0 0 0 0 0 0 0 0 0 0 0 0 0 0 0 0 0 0 0 0 0 0 2 3 5 8 7 5 6 13 15 13 1 31 0 788 996 958 857 1574 1623 1744 1553 1265 1357 1073 899 1082 931
0 0 0 0 0 0 0 0 0 0 0 0 0 0 0 0 0 0 0 2 0 4 6 5 7 8 6 7 10 9 15 12 1 57 0 282 790 889 966 1052 1585 1797 1598 1244 1314 1124 962 1138 927
0 0 0 0 0 0 0 0 0 0 0 0 0 0 0 0 0 0 0 4 0 4 4 3 9 8 6 7 7 2 8 55 248 11 0 0 1039 802 233 267 1245 1633 1663 1384 1219 1166 1035 1321 1069
0 0 0 0 0 0 0 0 0 0 0 0 0 0 0 0 0 0 0 1 0 7 12 3 9 5 8 12 8 1 5 3 94 0 1 30 247 623 446 0 41 1056 1854 1621 1385 1313 945 1292 1307
0 0 0 0 0 0 0 0 0 0 0 0 0 0 0 0 0 0 0 0 3 8 11 4 5 5 9 12 13 11 4 5 161 130 0 389 542 78 143 35 7 10 1021 1465 1413 1653 1224 1083 1327
0 0 0 0 0 0 0 0 0 0 0 0 0 0 0 0 0 0 0 0 4 5 8 6 4 4 8 8 12 9 12 9 2 108 191 66 2 286 37 0 0 171 943 1222 1339 1473 1344 1154 1359
0 0 0 0 0 0 0 0 0 0 0 0 0 0 0 0 0 0 0 0 1 6 7 6 3 5 7 7 13 15 10 13 9 5 4 42 139 21 8 8 141 918 1013 984 1127 1149 1062 1016 994

GFSSGP_con_sbcape_147.txt.gz
CAPE
0 0 0 0 0 0 0 0 0 0 0 0 0 0 0 0 0 0 0 84 1439 1586 1474 1429 1290 1429 1527 1755 1910 2033 2094 2019 1945 1861 1890 1868 1893 1980 2030 1999 2079 1893 2374 1942 1849 1860 1645 1667 1357
0 0 0 0 0 0 0 0 0 0 0 0 0 0 0 0 0 0 73 477 1108 1879 1563 1454 1283 1361 1487 1628 1881 2099 2346 2282 2013 1949 2001 1959 2032 2056 2116 1962 1828 1874 2171 2098 1874 1681 1787 1471 1194
0 0 0 0 0 0 0 0 0 0 0 0 0 0 0 0 0 0 193 737 1715 1946 1824 1495 1295 1305 1397 1543 1882 2172 2258 2206 2100 2004 2147 2134 2173 2001 2086 1838 1724 1887 1839 1920 1702 1748 1735 1244 1119
0 0 0 0 0 0 0 0 0 0 0 0 0 0 0 0 0 0 406 911 2233 2025 1739 1194 1296 1306 1391 1425 1746 2081 2107 2058 2037 2079 2212 2312 2249 1885 1944 1757 1772 1875 2057 1889 1743 1557 1434 1076 982
0 0 0 0 0 0 0 0 0 0 0 0 0 0 0 0 0 0 376 1128 2291 1843 1506 1378 1371 1407 1512 1503 1558 1775 1869 1948 1997 2077 2177 2213 1996 1838 1808 1805 1761 1723 1788 1730 1685 1321 1156 959 909
0 0 0 0 0 0 0 0 0 0 0 0 0 0 0 0 0 0 43 1145 1519 2532 1694 1615 1527 1558 1556 1548 1466 1451 1596 1782 1907 1998 2000 1957 1810 1800 1671 1669 1656 1630 1586 1515 1401 1151 1039 940 815
0 0 0 0 0 0 0 0 0 0 0 0 0 0 0 0 0 0 0 684 1677 2084 2197 1622 1578 1659 1634 1498 1402 1325 1314 1534 1746 1897 1874 1774 1623 1594 1581 1539 1521 1584 1539 1506 1190 1052 941 868 774
0 0 0 0 0 0 0 0 0 0 0 0 0 0 0 0 0 0 0 0 50 1456 2092 2025 1619 1449 1374 1326 1429 1316 1220 1285 1530 1780 1815 1718 1579 1477 1459 1407 1418 1505 1519 1342 1078 951 799 710 682
0 0 0 0 0 0 0 0 0 0 0 0 0 0 0 0 0 0 0 0 0 0 0 1582 2130 1944 1716 1559 1341 1370 1256 1157 1341 1536 1696 1418 1234 1272 1317 1295 1271 1310 1357 1265 1055 852 694 616 469
0 0 0 0 0 0 0 0 0 0 0 0 0 0 0 0 0 0 0 0 0 0 0 0 21 2081 2272 2403 1591 1164 1119 976 916 1198 1111 1183 1319 1282 1409 1243 1197 1282 1202 1152 1034 745 556 289 128
0 0 0 0 0 0 0 0 0 0 0 0 0 0 0 0 0 0 0 0 0 0 0 0 0 0 256 1368 1590 1528 1444 1244 1141 1174 1237 1204 1442 1304 1200 966 901 959 1059 886 754 548 375 214 247
0 0 0 0 0 0 0 0 0 0 0 0 0 0 0 0 0 0 0 0 0 0 0 0 0 0 0 0 257 1371 1350 1575 1378 1363 1356 1452 1289 1257 1102 813 772 679 678 649 506 327 267 315 320
0 0 0 0 0 0 0 0 0 0 0 0 0 0 0 0 0 0 0 0 0 0 0 0 0 0 0 0 0 0 247 1140 1473 1464 1499 1629 1418 1341 1114 947 903 786 544 594 447 331 369 372 414
0 0 0 0 0 0 0 0 0 0 0 0 0 0 0 0 0 0 0 0 0 0 0 0 0 0 0 0 0 0 0 0 1266 1332 1558 1514 1712 1465 1355 1103 1105 893 721 482 441 288 283 351 499
0 0 0 0 0 0 0 0 0 0 0 0 0 0 0 0 0 0 0 0 0 0 0 0 0 0 0 0 0 0 0 0 2 1230 1347 1857 1852 1568 1657 1321 1053 949 605 667 513 498 348 397 539
0 0 0 0 0 0 0 0 0 0 0 0 0 0 0 0 0 0 0 0 0 0 0 0 0 0 0 0 0 0 0 0 0 0 1464 1557 2077 1766 1577 1544 1210 815 511 669 773 732 534 348 467
0 0 0 0 0 0 0 0 0 0 0 0 0 0 0 0 0 0 0 0 0 0 0 0 0 0 0 0 0 0 0 0 0 0 0 1581 1749 2169 1780 1714 1401 846 610 696 672 510 618 319 288
0 0 0 0 0 0 0 0 0 0 0 0 0 0 0 0 0 0 0 0 0 0 0 0 0 0 0 0 0 0 0 0 0 0 0 12 1568 1844 2026 1841 1271 1032 699 489 544 503 333 344 232
0 0 0 0 0 0 0 0 0 0 0 0 0 0 0 0 0 0 0 0 0 0 0 0 0 0 0 0 0 0 0 0 0 0 0 0 396 1531 1878 1671 1697 1033 844 680 528 422 522 312 143
0 0 0 0 0 0 0 0 0 0 0 0 0 0 0 0 0 0 0 0 0 0 0 0 0 0 0 0 0 0 0 0 0 0 0 0 0 1004 1362 1497 1689 1247 955 684 622 561 482 503 215
0 0 0 0 0 0 0 0 0 0 0 0 0 0 0 0 0 0 0 0 0 0 0 0 0 0 0 0 0 1 2 0 0 0 0 0 0 142 1145 1288 1433 1486 1016 829 789 655 573 689 331
0 0 0 0 0 0 0 0 0 0 0 0 0 0 0 0 0 0 0 0 0 0 0 0 0 0 0 5 3 5 7 6 1 3 0 0 0 0 611 1141 1204 1391 1118 879 923 746 625 512 590
0 0 0 0 0 0 0 0 0 0 0 0 0 0 0 0 0 0 0 0 0 0 0 0 0 0 0 5 5 6 5 6 9 2 4 2 0 0 0 1007 946 968 1152 898 952 796 667 558 527
0 0 0 0 0 0 0 0 0 0 0 0 0 0 0 0 0 0 0 0 0 0 0 0 0 0 1 6 6 6 7 4 5 4 0 2 3 0 0 761 762 0 553 923 906 801 659 634 531
0 0 0 0 0 0 0 0 0 0 0 0 0 0 0 0 0 0 0 0 0 0 0 0 0 1 4 5 4 7 5 8 11 5 9 5 6 0 0 436 350 0 69 590 906 815 682 602 500
0 0 0 0 0 0 0 0 0 0 0 0 0 0 0 0 0 0 0 0 0 0 0 0 3 5 4 4 3 7 10 17 14 2 1 6 0 0 238 652 323 0 0 8 710 810 780 622 528
0 0 0 0 0 0 0 0 0 0 0 0 0 0 0 0 0 0 0 0 0 0 0 0 4 3 8 4 7 7 12 14 11 8 6 20 19 0 1 584 244 0 0 0 396 853 728 608 595
0 0 0 0 0 0 0 0 0 0 0 0 0 0 0 0 0 0 0 0 0 0 0 0 3 6 7 6 10 15 13 14 10 3 0 0 343 59 263 405 341 89 0 39 8 234 767 655 604
0 0 0 0 0 0 0 0 0 0 0 0 0 0 0 0 0 0 0 0 0 0 0 0 2 1 5 7 6 11 11 18 12 14 11 6 97 12 0 0 28 10 2 22 8 1 353 597 789
0 0 0 0 0 0 0 0 0 0 0 0 0 0 0 0 0 0 0 0 0 0 0 0 1 4 2 3 6 8 10 10 12 6 10 8 5 71 0 0 0 0 0 0 0 0 5 597 811

GFSSGP_con_sbcape_150.txt.gz
CAPE
0 0 0 0 0 0 0 0 0 0 0 0 0 0 0 0 0 0 0 243 1389 1262 1300 1264 1183 1378 1644 1878 1915 1833 1837 1889 1815 1699 1649 1690 1839 1884 1903 2046 2107 2235 2434 1849 1737 1757 1478 1422 1572
0 0 0 0 0 0 0 0 0 0 0 0 0 0 0 0 0 28 50 682 1859 1493 1417 1241 1179 1315 1565 1741 1900 2035 2164 2019 1883 1801 1793 1826 1909 1963 1951 1924 1798 1968 2100 1950 1883 1795 1634 1288 1320
0 0 0 0 0 0 0 0 0 0 0 0 0 0 0 0 0 0 0 1857 1809 1569 1569 1347 1113 1177 1391 1668 1910 2087 2164 2013 1869 1813 1936 1946 2020 2054 2027 1785 1699 1758 2103 2076 1909 1850 1729 1220 1081
0 0 0 0 0 0 0 0 0 0 0 0 0 0 0 0 0 0 588 1971 1844 1681 1500 1263 1074 1132 1304 1577 1888 2036 1981 1982 1949 1907 2024 2115 2140 2011 1945 1695 1688 1807 2075 2120 2119 2063 1598 1038 974
0 0 0 0 0 0 0 0 0 0 0 0 0 0 0 0 0 0 748 2041 1699 1474 1275 1222 1193 1158 1289 1482 1728 1783 1836 1888 1918 1979 2046 2111 2147 1892 1771 1613 1687 1782 1867 1960 1746 1571 1266 1006 937
0 0 0 0 0 0 0 0 0 0 0 0 0 0 0 0 0 0 351 1600 1803 1647 1452 1396 1306 1327 1307 1290 1280 1401 1547 1744 1853 1950 2009 2047 1895 1705 1644 1612 1603 1583 1525 1523 1441 1168 1121 981 953
0 0 0 0 0 0 0 0 0 0 0 0 0 0 0 0 0 0 0 0 1502 1830 1621 1440 1479 1461 1366 1300 1243 1189 1250 1488 1719 1856 1875 1837 1721 1611 1545 1554 1542 1515 1450 1441 1329 1101 1020 963 880
0 0 0 0 0 0 0 0 0 0 0 0 0 0 0 0 0 0 0 0 0 0 1106 1607 1430 1438 1292 1313 1356 1266 1175 1169 1404 1689 1774 1720 1607 1543 1495 1444 1428 1455 1474 1471 1249 1050 971 885 812
0 0 0 0 0 0 0 0 0 0 0 0 0 0 0 0 0 0 0 0 0 0 0 0 0 630 1016 1093 1190 1211 1153 1050 1097 1355 1615 1434 1198 1293 1350 1326 1356 1435 1451 1340 1137 953 813 731 700
0 0 0 0 0 0 0 0 0 0 0 0 0 0 0 0 0 0 0 0 0 0 0 0 0 0 0 0 395 881 900 974 871 991 1050 724 994 1016 1332 1311 1279 1274 1339 1276 1110 874 689 512 321
0 0 0 0 0 0 0 0 0 0 0 0 0 0 0 0 0 0 0 0 0 0 0 0 0 0 0 0 0 0 87 743 716 783 893 948 1183 948 1016 1000 986 1000 1176 996 980 724 537 369 198
0 0 0 0 0 0 0 0 0 0 0 0 0 0 0 0 0 0 0 0 0 0 0 0 0 0 0 0 0 0 0 0 0 730 799 950 1019 982 926 869 780 743 898 782 749 589 404 207 210
0 0 0 0 0 0 0 0 0 0 0 0 0 0 0 0 0 0 0 0 0 0 0 0 0 0 0 0 0 0 0 0 0 0 285 1093 1202 1157 850 812 710 707 547 596 562 427 295 259 262
0 0 0 0 0 0 0 0 0 0 0 0 0 0 0 0 0 0 0 0 0 0 0 0 0 0 0 0 0 0 0 0 0 0 0 470 1394 1404 1090 887 730 739 616 566 481 405 335 305 295
0 0 0 0 0 0 0 0 0 0 0 0 0 0 0 0 0 0 0 0 0 0 0 0 0 0 0 0 0 0 0 0 0 0 0 0 758 1498 1532 1121 851 934 675 529 380 242 220 218 312
0 0 0 0 0 0 0 0 0 0 0 0 0 0 0 0 0 0 0 0 0 0 0 0 0 0 0 0 0 0 0 0 0 0 0 0 0 297 1455 1506 1308 1022 675 668 446 378 328 291 393
0 0 0 0 0 0 0 0 0 0 0 0 0 0 0 0 0 0 0 0 0 0 0 0 0 0 0 0 0 0 0 0 0 0 0 0 0 0 864 1405 1598 1251 824 636 588 537 645 440 401
0 0 0 0 0 0 0 0 0 0 0 0 0 0 0 0 0 0 0 0 0 0 0 0 0 0 0 0 0 0 0 0 0 0 0 0 0 0 0 562 1380 1534 938 605 577 659 690 600 448
0 0 0 0 0 0 0 0 0 0 0 0 0 0 0 0 0 0 0 0 0 0 0 0 0 0 0 0 0 0 0 0 0 0 0 0 0 0 0 0 767 1286 1408 859 569 613 484 383 291
0 0 0 0 0 0 0 0 0 0 0 0 0 0 0 0 0 0 0 0 0 0 0 0 0 0 0 0 0 0 0 0 0 0 0 0 0 0 0 0 0 889 1095 1051 545 561 527 512 270
0 0 0 0 0 0 0 0 0 0 0 0 0 0 0 0 0 0 0 0 0 0 0 0 0 0 0 0 0 0 0 0 0 0 0 0 2 1 0 0 0 112 769 1036 671 660 692 601 260
0 0 0 0 0 0 0 0 0 0 0 0 0 0 0 0 0 0 0 0 0 0 0 0 0 0 0 0 0 1 3 3 2 3 2 2 1 1 2 1 0 0 519 612 762 768 741 688 528
0 0 0 0 0 0 0 0 0 0 0 0 0 0 0 0 0 0 0 0 0 0 0 0 0 0 0 0 0 2 3 4 5 4 2 2 5 0 1 2 0 0 147 736 868 736 632 669 631
0 0 0 0 0 0 0 0 0 0 0 0 0 0 0 0 0 0 0 0 0 0 0 0 0 0 0 0 1 2 5 6 6 6 10 8 5 6 0 0 0 0 0 672 461 666 604 653 697
0 0 0 0 0 0 0 0 0 0 0 0 0 0 0 0 0 0 0 0 0 0 0 0 0 0 0 1 3 3 4 4 6 10 15 12 13 9 1 0 0 0 0 393 222 16 1 416 551
0 0 0 0 0 0 0 0 0 0 0 0 0 0 0 0 0 0 0 0 0 0 0 0 0 1 1 3 3 4 4 9 7 8 14 13 18 16 1 2 1 0 0 139 12 0 0 3 514
0 0 0 0 0 0 0 0 0 0 0 0 0 0 0 0 0 0 0 0 0 0 0 0 0 0 0 0 3 4 7 4 9 6 20 17 13 3 8 0 0 0 222 0 0 0 0 3 574
0 0 0 0 0 0 0 0 0 0 0 0 0 0 0 0 0 0 0 0 0 0 0 0 0 0 0 0 3 10 9 11 12 11 14 13 17 1 4 0 0 134 85 3 0 0 0 7 142
0 0 0 0 0 0 0 0 0 0 0 0 0 0 0 0 0 0 0 0 0 0 0 0 0 0 0 0 0 6 9 12 11 11 12 17 14 15 5 7 106 178 17 0 0 0 0 0 0
0 0 0 0 0 0 0 0 0 0 0 0 0 0 0 0 0 0 0 0 0 0 0 0 0 0 0 0 2 6 9 8 8 6 11 12 15 13 10 5 0 3 25 0 0 0 0 6 0

GFSSGP_con_sbcape_153.txt.gz
CAPE
0 0 0 0 0 0 0 0 0 0 0 0 0 0 0 0 0 0 0 343 1242 1177 1220 1203 1237 1552 1741 1846 1681 1686 1795 1886 1840 1773 1668 1773 1894 2065 2124 2191 2226 2366 2263 1849 1700 1510 1482 1308 1380
0 0 0 0 0 0 0 0 0 0 0 0 0 0 0 0 0 4 51 531 1537 1277 1271 1119 1170 1406 1643 1741 1881 1886 1990 1911 1796 1782 1758 1865 1949 1972 2164 2117 2055 2173 2245 1749 1698 1646 1507 1627 1379
0 0 0 0 0 0 0 0 0 0 0 0 0 0 0 0 0 0 377 1797 1458 1443 1359 1166 1033 1144 1439 1685 1897 2051 2075 1849 1744 1708 1832 1936 2035 2079 2095 1881 1859 2030 2353 1912 1808 1777 1757 1284 1142
0 0 0 0 0 0 0 0 0 0 0 0 0 0 0 0 0 0 1704 1785 1718 1547 1373 1047 948 1022 1251 1633 1930 1925 1921 1921 1833 1771 1881 1992 2080 2164 2021 1742 1778 1937 2313 2300 2102 1772 1336 1078 1006
0 0 0 0 0 0 0 0 0 0 0 0 0 0 0 0 0 141 1629 1664 1573 1198 1147 1173 1149 1093 1156 1402 1646 1632 1701 1778 1859 1917 1975 2028 2107 2009 1874 1644 1706 1764 2127 2023 1897 1812 1324 996 969
0 0 0 0 0 0 0 0 0 0 0 0 0 0 0 0 0 0 323 1341 1297 1327 1427 1392 1392 1323 1243 1170 1128 1167 1280 1473 1686 1858 1990 2053 2055 1877 1766 1603 1631 1667 1687 1697 1469 1204 1192 1014 900
0 0 0 0 0 0 0 0 0 0 0 0 0 0 0 0 0 0 0 0 0 0 0 62 505 1207 1040 996 997 965 967 1114 1311 1584 1753 1828 1890 1693 1657 1623 1587 1582 1451 1403 1360 1071 1035 1000 940
0 0 0 0 0 0 0 0 0 0 0 0 0 0 0 0 0 0 0 0 0 0 0 0 0 0 0 0 716 938 871 860 991 1293 1581 1676 1584 1534 1557 1567 1549 1570 1456 1383 1320 1107 976 934 932
0 0 0 0 0 0 0 0 0 0 0 0 0 0 0 0 0 0 0 0 0 0 0 0 0 0 0 0 0 0 7 306 669 764 1091 1166 983 1124 1218 1309 1382 1475 1472 1471 1332 1075 943 855 778
0 0 0 0 0 0 0 0 0 0 0 0 0 0 0 0 0 0 0 0 0 0 0 0 0 0 0 0 0 0 0 0 0 126 620 746 549 894 1110 1198 1256 1376 1469 1428 1266 1027 808 707 321
0 0 0 0 0 0 0 0 0 0 0 0 0 0 0 0 0 0 0 0 0 0 0 0 0 0 0 0 0 0 0 0 0 0 0 250 739 772 868 853 861 891 1148 1132 1097 860 522 528 192
0 0 0 0 0 0 0 0 0 0 0 0 0 0 0 0 0 0 0 0 0 0 0 0 0 0 0 0 0 0 0 0 0 0 0 0 392 812 804 886 773 694 844 864 823 871 711 464 138
0 0 0 0 0 0 0 0 0 0 0 0 0 0 0 0 0 0 0 0 0 0 0 0 0 0 0 0 0 0 0 0 0 0 0 0 0 104 900 847 791 688 670 791 677 748 431 301 187
0 0 0 0 0 0 0 0 0 0 0 0 0 0 0 0 0 0 0 0 0 0 0 0 0 0 0 0 0 0 0 0 0 0 0 0 0 0 234 1000 834 793 686 766 645 613 461 319 245
0 0 0 0 0 0 0 0 0 0 0 0 0 0 0 0 0 0 0 0 0 0 0 0 0 0 0 0 0 0 0 0 0 0 0 0 0 0 0 4 983 967 791 732 592 369 277 239 209
0 0 0 0 0 0 0 0 0 0 0 0 0 0 0 0 0 0 0 0 0 0 0 0 0 0 0 0 0 0 0 0 0 0 0 0 0 0 0 0 2 968 887 695 588 508 400 351 227
0 0 0 0 0 0 0 0 0 0 0 0 0 0 0 0 0 0 0 0 0 0 0 0 0 0 0 0 0 0 0 0 0 0 0 0 0 0 0 0 0 0 1012 830 661 534 554 399 275
0 0 0 0 0 0 0 0 0 0 0 0 0 0 0 0 0 0 0 0 0 0 0 0 0 0 0 0 0 0 0 0 0 0 0 0 0 0 0 0 0 0 6 1037 684 737 496 479 478
0 0 0 0 0 0 0 0 0 0 0 0 0 0 0 0 0 0 0 0 0 0 0 0 0 0 0 0 0 0 0 0 0 0 0 0 0 0 0 2 0 0 0 208 904 669 617 546 475
0 0 0 0 0 0 0 0 0 0 0 0 0 0 0 0 0 0 0 0 0 0 0 0 0 0 0 0 0 0 0 0 0 0 0 0 0 0 1 0 2 1 1 0 464 704 772 762 322
0 0 0 0 0 0 0 0 0 0 0 0 0 0 0 0 0 0 0 0 0 0 0 0 0 0 0 0 0 0 0 0 0 0 0 1 2 2 1 2 2 4 1 1 0 707 786 733 409
0 0 0 0 0 0 0 0 0 0 0 0 0 0 0 0 0 0 0 0 0 0 0 0 0 0 0 0 0 0 1 1 0 0 0 2 2 4 4 0 1 2 5 3 0 295 783 839 644
0 0 0 0 0 0 0 0 0 0 0 0 0 0 0 0 0 0 0 0 0 0 0 0 0 0 0 0 0 1 1 2 0 2 0 4 4 7 6 8 0 0 0 8 0 0 568 713 779
0 0 0 0 0 0 0 0 0 0 0 0 0 0 0 0 0 0 0 0 0 0 0 0 0 0 0 0 0 0 0 3 0 2 3 4 8 12 9 6 6 4 0 3 9 0 321 478 696
0 0 0 0 0 0 0 0 0 0 0 0 0 0 0 0 0 0 0 0 0 0 0 0 0 0 0 0 0 0 0 3 6 4 4 5 1 7 8 9 12 15 11 3 5 3 87 335 436
0 0 0 0 0 0 0 0 0 0 0 0 0 0 0 0 0 0 0 0 0 0 0 0 0 0 0 0 0 0 0 5 5 5 8 5 11 9 13 15 14 8 12 15 6 8 31 435 38
0 0 0 0 0 0 0 0 0 0 0 0 0 0 0 0 0 0 0 0 0 0 0 0 0 0 0 0 0 0 1 4 4 7 8 7 9 13 6 10 13 7 6 7 4 3 45 174 8
0 0 0 0 0 0 0 0 0 0 0 0 0 0 0 0 0 0 0 0 0 0 0 0 0 0 0 0 0 4 4 5 5 8 9 10 9 11 11 13 14 12 16 1 3 36 62 53 0
0 0 0 0 0 0 0 0 0 0 0 0 0 0 0 0 0 0 0 0 0 0 0 0 0 0 0 0 0 2 6 3 3 7 9 9 12 15 16 13 17 12 10 18 60 86 1 0 0
0 0 0 0 0 0 0 0 0 0 0 0 0 0 0 0 0 0 0 0 0 0 0 0 0 0 0 0 0 3 0 2 2 6 7 7 11 15 14 14 10 12 1 3 65 15 4 0 0

GFSSGP_con_sbcape_156.txt.gz
CAPE
0 0 0 0 0 0 0 0 0 0 0 0 0 0 0 0 0 0 0 709 1153 1168 1111 1122 1278 1614 1827 1882 1731 1747 1885 1937 1895 1781 1766 1887 2060 2209 2328 2051 1996 2185 2158 1940 1712 1452 1309 1146 1173
0 0 0 0 0 0 0 0 0 0 0 0 0 0 0 0 0 6 403 1351 1265 1251 1141 1076 1198 1433 1636 1806 1931 1897 1970 1863 1837 1812 1816 1845 1925 2086 2192 2204 2014 2168 2345 1900 1779 1567 1542 1434 1138
0 0 0 0 0 0 0 0 0 0 0 0 0 0 0 0 0 0 1439 1474 1472 1420 1202 1061 1038 1180 1541 1812 1917 2005 1944 1764 1655 1648 1791 1855 1890 1966 2112 1984 1966 2009 2172 1891 1732 1761 1831 1327 1083
0 0 0 0 0 0 0 0 0 0 0 0 0 0 0 0 0 240 1739 1646 1187 1074 1054 908 941 945 1302 1724 1854 1819 1775 1718 1730 1682 1796 1875 1974 2058 1946 1730 1847 2087 2184 2143 2056 1992 1613 1049 944
0 0 0 0 0 0 0 0 0 0 0 0 0 0 0 0 0 558 371 0 270 433 814 1113 1038 1109 1263 1443 1476 1354 1453 1538 1678 1828 1894 1999 2061 2036 1937 1657 1677 1789 2062 1923 1971 1859 1457 969 907
0 0 0 0 0 0 0 0 0 0 0 0 0 0 0 0 0 0 0 0 0 0 0 0 0 0 52 389 720 741 813 959 1196 1559 1784 1920 1967 1926 1807 1644 1579 1652 1717 1731 1538 1402 1315 1041 876
0 0 0 0 0 0 0 0 0 0 0 0 0 0 0 0 0 0 0 0 0 0 0 0 0 0 0 0 0 5 56 316 582 695 910 1210 1544 1673 1546 1583 1528 1587 1470 1436 1369 1070 1019 1040 914
0 0 0 0 0 0 0 0 0 0 0 0 0 0 0 0 0 0 0 0 0 0 0 0 0 0 0 0 0 0 0 0 0 251 502 336 703 1133 1437 1403 1348 1451 1467 1376 1289 1175 937 934 917
0 0 0 0 0 0 0 0 0 0 0 0 0 0 0 0 0 0 0 0 0 0 0 0 0 0 0 0 0 0 0 0 0 0 0 117 324 511 803 1115 1273 1231 1346 1342 1319 1174 953 854 831
0 0 0 0 0 0 0 0 0 0 0 0 0 0 0 0 0 0 0 0 0 0 0 0 0 0 0 0 0 0 0 0 0 0 0 0 23 256 432 816 1136 1186 1204 1309 1337 1178 858 733 329
0 0 0 0 0 0 0 0 0 0 0 0 0 0 0 0 0 0 0 0 0 0 0 0 0 0 0 0 0 0 0 0 0 0 0 0 0 38 520 457 558 722 896 907 1030 871 586 396 195
0 0 0 0 0 0 0 0 0 0 0 0 0 0 0 0 0 0 0 0 0 0 0 0 0 0 0 0 0 0 0 0 0 0 0 0 0 0 0 416 640 521 606 777 738 616 522 466 204
0 0 0 0 0 0 0 0 0 0 0 0 0 0 0 0 0 0 0 0 0 0 0 0 0 0 0 0 0 0 0 0 0 0 0 0 0 0 0 0 256 724 611 670 693 912 865 500 265
0 0 0 0 0 0 0 0 0 0 0 0 0 0 0 0 0 0 0 0 0 0 0 0 0 0 0 0 0 0 0 0 0 0 0 0 0 0 0 0 0 60 808 771 796 839 805 552 313
0 0 0 0 0 0 0 0 0 0 0 0 0 0 0 0 0 0 0 0 0 0 0 0 0 0 0 0 0 0 0 0 0 0 0 0 0 0 0 0 0 0 42 866 756 653 583 533 197
0 0 0 0 0 0 0 0 0 0 0 0 0 0 0 0 0 0 0 0 0 0 0 0 0 0 0 0 0 0 0 0 0 0 0 0 0 0 0 0 0 0 0 2 927 858 528 413 393
0 0 0 0 0 0 0 0 0 0 0 0 0 0 0 0 0 0 0 0 0 0 0 0 0 0 0 0 0 0 0 0 0 0 0 0 0 0 0 0 0 0 0 0 2 895 783 654 431
0 0 0 0 0 0 0 0 0 0 0 0 0 0 0 0 0 0 0 0 0 0 0 0 0 0 0 0 0 0 0 0 0 0 0 0 0 0 0 0 0 2 2 1 0 84 847 788 640
0 0 0 0 0 0 0 0 0 0 0 0 0 0 0 0 0 0 0 0 0 0 0 0 0 0 0 0 0 0 0 0 0 0 0 0 0 0 0 0 1 0 2 6 4 0 74 737 549
0 0 0 0 0 0 0 0 0 0 0 0 0 0 0 0 0 0 0 0 0 0 0 0 0 0 0 0 0 0 0 0 0 0 0 0 0 0 0 0 0 0 3 1 2 6 0 660 725
0 0 0 0 0 0 0 0 0 0 0 0 0 0 0 0 0 0 0 0 0 0 0 0 0 0 0 0 0 0 0 0 0 0 0 0 0 0 0 0 2 0 3 5 0 2 6 23 718
0 0 0 0 0 0 0 0 0 0 0 0 0 0 0 0 0 0 0 0 0 0 0 0 0 0 0 0 0 0 0 0 0 1 2 0 0 0 1 9 9 7 4 10 6 1 5 10 107
0 0 0 0 0 0 0 0 0 0 0 0 0 0 0 0 0 0 0 0 0 0 0 0 0 0 0 0 0 0 0 0 0 1 0 1 2 2 5 4 6 11 16 14 17 9 1 5 9
0 0 0 0 0 0 0 0 0 0 0 0 0 0 0 0 0 0 0 0 0 0 0 0 0 0 0 0 0 0 0 0 1 1 1 3 3 4 0 10 3 13 17 17 17 14 6 4 7
0 0 0 0 0 0 0 0 0 0 0 0 0 0 0 0 0 0 0 0 0 0 0 0 0 0 0 0 0 0 0 1 1 2 3 4 0 5 8 10 12 13 18 19 17 16 18 11 3
0 0 0 0 0 0 0 0 0 0 0 0 0 0 0 0 0 0 0 0 0 0 0 0 0 0 0 0 0 0 0 1 1 3 4 2 7 11 10 11 13 10 19 13 14 18 16 9 9
0 0 0 0 0 0 0 0 0 0 0 0 0 0 0 0 0 0 0 0 0 0 0 0 0 0 0 0 0 0 0 1 4 3 3 6 1 8 8 11 14 10 15 12 13 11 11 6 6
0 0 0 0 0 0 0 0 0 0 0 0 0 0 0 0 0 0 0 0 0 0 0 0 0 0 0 0 0 0 1 1 0 2 3 3 4 4 8 8 8 3 13 11 18 14 15 1 6
0 0 0 0 0 0 0 0 0 0 0 0 0 0 0 0 0 0 0 0 0 0 0 0 0 0 0 0 0 0 0 2 0 0 2 6 4 6 7 9 12 10 13 14 12 14 11 30 4
0 0 0 0 0 0 0 0 0 0 0 0 0 0 0 0 0 0 0 0 0 0 0 0 0 0 0 0 0 0 0 2 0 0 0 2 3 5 8 9 12 10 14 13 16 5 4 15 165

GFSSGP_con_sbcape_159.txt.gz
CAPE
0 0 0 0 0 0 0 0 0 0 0 0 0 0 0 0 0 2 221 1880 1577 1587 1508 1449 1436 1772 1909 1868 1826 1916 1990 1754 1646 1783 1892 2058 2185 2248 2149 2113 2162 2383 2324 1981 1710 1410 1216 1115 1134
0 0 0 0 0 0 0 0 0 0 0 0 0 0 0 0 0 730 1753 1768 1687 1520 1471 1387 1141 1497 1812 1894 2004 1977 1955 1775 1780 1771 1801 1885 2031 2123 2200 2146 2029 2039 2116 1885 1820 1603 1495 1336 1117
0 0 0 0 0 0 0 0 0 0 0 0 0 0 0 0 0 1211 1947 1444 1534 1524 1526 1300 939 1158 1665 1796 1833 1897 1890 1744 1648 1672 1793 1788 1792 1954 2077 2021 1946 1925 1899 1900 1879 1768 1839 1337 1013
0 0 0 0 0 0 0 0 0 0 0 0 0 0 0 0 7 677 18 805 261 159 50 4 306 993 1307 1351 1236 1307 1465 1541 1690 1771 1867 1876 1904 1954 1937 1760 1787 1801 2048 2029 1987 2054 1822 1052 882
0 0 0 0 0 0 0 0 0 0 0 0 0 0 0 0 0 0 0 0 0 0 0 0 0 0 137 576 715 836 918 952 1068 1363 1483 1669 1858 2006 1900 1675 1614 1779 1856 1935 1894 1756 1630 980 838
0 0 0 0 0 0 0 0 0 0 0 0 0 0 0 0 0 0 0 0 0 0 0 0 0 0 0 0 0 0 3 165 459 740 843 1028 1096 1386 1789 1710 1549 1578 1626 1766 1635 1463 1424 1082 861
0 0 0 0 0 0 0 0 0 0 0 0 0 0 0 0 0 0 0 0 0 0 0 0 0 0 0 0 0 0 0 0 0 45 51 63 355 662 943 1463 1519 1483 1503 1450 1480 1228 989 1038 895
0 0 0 0 0 0 0 0 0 0 0 0 0 0 0 0 0 0 0 0 0 0 0 0 0 0 0 0 0 0 0 0 0 0 0 0 21 347 722 915 1519 1381 1395 1405 1324 1172 1010 828 887
0 0 0 0 0 0 0 0 0 0 0 0 0 0 0 0 0 0 0 0 0 0 0 0 0 0 0 0 0 0 0 0 0 0 0 0 0 247 561 594 722 985 1192 1250 1267 1165 1047 803 765
0 0 0 0 0 0 0 0 0 0 0 0 0 0 0 0 0 0 0 0 0 0 0 0 0 0 0 0 0 0 0 0 0 0 0 0 0 0 10 358 447 654 889 1012 1213 1197 1081 722 1458
0 0 0 0 0 0 0 0 0 0 0 0 0 0 0 0 0 0 0 0 0 0 0 0 0 0 0 0 0 0 0 0 0 0 0 0 0 0 0 20 634 1184 1176 1603 1715 1744 1754 1575 1460
0 0 0 0 0 0 0 0 0 0 0 0 0 0 0 0 0 0 0 0 0 0 0 0 0 0 0 0 0 0 0 0 0 0 0 0 0 0 0 0 0 296 1087 1467 1647 1933 1929 1841 1495
0 0 0 0 0 0 0 0 0 0 0 0 0 0 0 0 0 0 0 0 0 0 0 0 0 0 0 0 0 0 0 0 0 0 0 0 0 0 0 0 0 0 0 576 1035 1652 1653 1893 1625
0 0 0 0 0 0 0 0 0 0 0 0 0 0 0 0 0 0 0 0 0 0 0 0 0 0 0 0 0 0 0 0 0 0 0 0 0 0 0 0 0 0 0 0 91 909 1238 1498 1595
0 0 0 0 0 0 0 0 0 0 0 0 0 0 0 0 0 0 0 0 0 0 0 0 0 0 0 0 0 0 0 0 0 0 0 0 0 0 0 0 0 0 0 0 0 2 828 1120 1220
0 0 0 0 0 0 0 0 0 0 0 0 0 0 0 0 0 0 0 0 0 0 0 0 0 0 0 0 0 0 0 0 0 0 0 0 0 0 0 0 0 0 0 0 0 0 27 824 848
0 0 0 0 0 0 0 0 0 0 0 0 0 0 0 0 0 0 0 0 0 0 0 0 0 0 0 0 0 0 0 0 0 0 0 0 0 0 1 0 0 6 2 3 2 0 0 66 1050
0 0 0 0 0 0 0 0 0 0 0 0 0 0 0 0 0 0 0 0 0 0 0 0 0 0 0 0 0 0 0 0 0 0 0 0 0 0 1 1 3 5 5 6 10 10 1 0 23
0 0 0 0 0 0 0 0 0 0 0 0 0 0 0 0 0 0 0 0 0 0 0 0 0 0 0 0 0 0 0 0 0 0 0 0 0 2 3 2 3 7 4 5 2 3 13 1 0
0 0 0 0 0 0 0 0 0 0 0 0 0 0 0 0 0 0 0 0 0 0 0 0 0 0 0 0 0 0 0 0 0 0 0 0 2 4 5 8 8 9 10 8 6 4 1 14 3
0 0 0 0 0 0 0 0 0 0 0 0 0 0 0 0 0 0 0 0 0 0 0 0 0 0 0 0 0 0 0 0 0 0 0 0 4 5 5 3 6 7 8 18 15 12 8 6 11
0 0 0 0 0 0 0 0 0 0 0 0 0 0 0 0 0 0 0 0 0 0 0 0 0 0 0 0 0 0 0 0 0 0 1 2 4 4 7 5 4 12 13 21 20 10 21 15 6
0 0 0 0 0 0 0 0 0 0 0 0 0 0 0 0 0 0 0 0 0 0 0 0 0 0 0 0 0 0 0 0 0 0 1 1 3 5 7 7 9 11 16 8 20 18 18 25 19
0 0 0 0 0 0 0 0 0 0 0 0 0 0 0 0 0 0 0 0 0 0 0 0 0 0 0 0 0 0 0 1 0 0 1 2 4 5 5 8 8 10 13 10 17 19 15 17 28
0 0 0 0 0 0 0 0 0 0 0 0 0 0 0 0 0 0 0 0 0 0 0 0 0 0 0 0 0 0 1 2 2 1 0 3 4 6 9 8 9 13 14 17 20 16 14 15 17
0 0 0 0 0 0 0 0 0 0 0 0 0 0 0 0 0 0 0 0 0 0 0 0 0 0 0 0 0 0 1 0 2 2 3 3 4 8 4 7 7 9 11 5 15 18 15 19 21
0 0 0 0 0 0 0 0 0 0 0 0 0 0 0 0 0 0 0 0 0 0 0 0 0 0 0 0 0 0 0 1 5 5 4 4 5 5 7 6 8 8 11 12 17 14 16 22 24
0 0 0 0 0 0 0 0 0 0 0 0 0 0 0 0 0 0 0 0 0 0 0 0 0 0 0 0 0 0 1 2 7 10 5 5 5 5 7 6 8 7 11 15 19 17 20 23 17
0 0 0 0 0 0 0 0 0 0 0 0 0 0 0 0 0 0 0 0 0 0 0 0 0 0 0 0 0 2 6 5 3 10 6 6 6 7 7 9 8 7 8 10 15 14 16 17 16
0 0 0 0 0 0 0 0 0 0 0 0 0 0 0 0 0 0 0 0 0 0 0 0 0 0 0 0 1 5 6 7 4 11 6 5 5 6 9 8 8 6 8 10 11 8 13 15 11